<- Previous Day | Today | Next Day ->

All Data for 15 January 2022

 

Time A - D Temp A - D Dew Point A - D Humidity A - D Pressure A - D Wind A - D Wind Dir Gust A - D Rain Rate A - D Rain Total
00:00 6.6 5.6 93 1027.0 2.2 SSW 3.8 0.0 0.0
00:01 6.5 5.5 93 1026.8 2.2 S 3.8 0.0 0.0
00:02 6.5 5.5 93 1027.0 2.2 S 3.8 0.0 0.0
00:03 6.5 5.5 93 1027.0 3.1 SSW 3.8 0.0 0.0
00:04 6.5 5.5 93 1027.0 3.1 SSW 3.1 0.0 0.0
00:05 6.5 5.5 93 1027.0 3.1 S 3.1 0.0 0.0
00:06 6.5 5.5 93 1026.9 3.1 S 3.1 0.0 0.0
00:07 6.5 5.5 93 1026.9 3.1 S 3.1 0.0 0.0
00:08 6.5 5.5 93 1026.9 2.2 S 3.1 0.0 0.0
00:09 6.4 5.4 93 1027.0 2.2 S 3.1 0.0 0.0
00:10 6.4 5.4 93 1026.9 1.6 S 3.1 0.0 0.0
00:11 6.4 5.4 93 1027.1 2.2 SW 3.1 0.0 0.0
00:12 6.4 5.4 93 1026.9 2.2 SW 3.1 0.0 0.0
00:13 6.4 5.4 93 1027.0 2.2 S 3.1 0.0 0.0
00:14 6.4 5.4 93 1026.9 2.2 S 3.1 0.0 0.0
00:15 6.4 5.2 92 1026.9 2.2 S 3.1 0.0 0.0
00:16 6.3 5.1 92 1026.9 2.2 S 3.1 0.0 0.0
00:17 6.3 5.1 92 1027.0 2.2 S 2.2 0.0 0.0
00:18 6.3 5.1 92 1026.9 2.2 S 2.2 0.0 0.0
00:19 6.3 5.1 92 1027.0 2.2 S 2.2 0.0 0.0
00:20 6.3 5.1 92 1027.0 2.2 S 2.2 0.0 0.0
00:21 6.3 5.1 92 1026.9 3.1 S 3.1 0.0 0.0
00:22 6.2 5.0 92 1026.9 3.1 S 3.1 0.0 0.0
00:23 6.2 5.0 92 1026.9 3.1 S 3.1 0.0 0.0
00:24 6.2 5.0 92 1027.0 2.2 S 3.1 0.0 0.0
00:25 6.2 5.0 92 1026.9 2.2 S 3.1 0.0 0.0
00:26 6.1 4.9 92 1026.7 1.6 S 3.1 0.0 0.0
00:27 6.1 4.9 92 1026.9 1.6 S 3.1 0.0 0.0
00:28 6.1 4.9 92 1027.1 2.2 S 3.1 0.0 0.0
00:29 6.1 4.9 92 1026.9 2.2 S 3.1 0.0 0.0
00:30 6.0 4.8 92 1026.8 2.2 S 3.1 0.0 0.0
00:31 6.0 4.8 92 1026.9 2.2 S 3.1 0.0 0.0
00:32 6.0 4.8 92 1026.9 2.2 S 3.1 0.0 0.0
00:33 6.0 4.8 92 1026.8 1.6 SE 2.2 0.0 0.0
00:34 5.9 4.7 92 1026.7 2.2 SW 2.2 0.0 0.0
00:35 5.9 4.7 92 1026.7 2.2 SW 2.2 0.0 0.0
00:36 5.9 4.7 92 1026.8 2.2 SE 2.2 0.0 0.0
00:37 5.9 4.7 92 1026.8 2.2 S 2.2 0.0 0.0
00:38 5.9 4.7 92 1026.8 3.1 S 3.1 0.0 0.0
00:39 5.9 4.7 92 1026.9 3.1 S 3.1 0.0 0.0
00:40 5.8 4.6 92 1027.0 2.2 SE 3.1 0.0 0.0
00:41 5.7 4.5 92 1026.8 2.2 S 3.1 0.0 0.0
00:42 5.7 4.5 92 1026.6 2.2 S 3.1 0.0 0.0
00:43 5.7 4.3 91 1027.0 3.1 S 3.1 0.0 0.0
00:44 5.7 4.3 91 1026.7 3.1 S 3.1 0.0 0.0
00:45 5.6 4.2 91 1026.8 2.2 S 3.1 0.0 0.0
00:46 5.6 4.2 91 1026.7 1.6 S 3.1 0.0 0.0
00:47 5.6 4.2 91 1026.9 1.6 S 3.1 0.0 0.0
00:48 5.6 4.2 91 1026.7 2.2 S 3.1 0.0 0.0
00:49 5.6 4.2 91 1026.7 2.2 S 3.1 0.0 0.0
00:50 5.5 4.1 91 1027.0 1.6 S 3.1 0.0 0.0
00:51 5.5 4.1 91 1027.0 1.6 S 3.1 0.0 0.0
00:52 5.5 4.1 91 1026.6 2.2 SE 3.1 0.0 0.0
00:53 5.4 4.1 91 1026.7 2.2 S 3.1 0.0 0.0
00:54 5.4 4.1 91 1026.9 2.2 S 3.1 0.0 0.0
00:55 5.4 4.1 91 1026.9 1.6 S 3.1 0.0 0.0
00:56 5.4 4.1 91 1027.0 0.7 S 3.1 0.0 0.0
00:57 5.3 4.0 91 1026.7 0.7 S 2.2 0.0 0.0
00:58 5.3 4.0 91 1026.9 1.6 S 2.2 0.0 0.0
00:59 5.3 4.0 91 1026.5 1.6 S 2.2 0.0 0.0
01:00 5.3 4.0 91 1026.8 1.6 SSE 2.2 0.0 0.0
01:01 5.3 4.0 91 1026.7 1.6 SSE 2.2 0.0 0.0
01:02 5.3 4.0 91 1026.8 1.6 SSE 2.2 0.0 0.0
01:03 5.3 4.0 91 1026.8 1.6 SSE 2.2 0.0 0.0
01:04 5.3 4.0 91 1026.5 1.6 SSE 2.2 0.0 0.0
01:05 5.3 4.0 91 1026.6 1.6 SSE 1.6 0.0 0.0
01:06 5.3 4.0 91 1026.5 1.6 SSE 1.6 0.0 0.0
01:07 5.2 3.9 91 1026.6 3.1 SE 3.1 0.0 0.0
01:08 5.2 3.9 91 1026.7 3.1 S 3.1 0.0 0.0
01:09 5.1 3.8 91 1026.6 2.2 S 3.1 0.0 0.0
01:10 5.1 3.8 91 1026.6 2.2 SW 3.1 0.0 0.0
01:11 5.1 3.8 91 1026.6 1.6 SE 3.1 0.0 0.0
01:12 5.1 3.8 91 1026.5 0.7 SE 3.1 0.0 0.0
01:13 5.1 3.8 91 1026.5 0.7 S 3.1 0.0 0.0
01:14 5.1 3.8 91 1026.4 1.6 SE 3.1 0.0 0.0
01:15 5.1 3.8 91 1026.4 2.2 SE 3.1 0.0 0.0
01:16 5.0 3.7 91 1026.5 1.6 S 3.1 0.0 0.0
01:17 5.0 3.7 91 1026.5 0.7 S 3.1 0.0 0.0
01:18 5.0 3.7 91 1026.6 0.7 SSE 2.2 0.0 0.0
01:19 5.0 3.7 91 1026.5 0.7 S 2.2 0.0 0.0
01:20 5.0 3.7 91 1026.4 0.7 S 2.2 0.0 0.0
01:21 5.0 3.7 91 1026.5 1.6 SE 2.2 0.0 0.0
01:22 5.0 3.7 91 1026.4 1.6 SE 2.2 0.0 0.0
01:23 4.9 3.6 91 1026.4 0.7 E 2.2 0.0 0.0
01:24 4.9 3.6 91 1026.5 0.7 ESE 2.2 0.0 0.0
01:25 4.9 3.6 91 1026.3 1.6 S 2.2 0.0 0.0
01:26 4.9 3.6 91 1026.4 1.6 SE 1.6 0.0 0.0
01:27 4.9 3.6 91 1026.1 1.6 SE 1.6 0.0 0.0
01:28 4.9 3.6 91 1026.5 1.6 SE 1.6 0.0 0.0
01:29 4.8 3.5 91 1026.4 2.2 SE 2.2 0.0 0.0
01:30 4.8 3.5 91 1026.3 2.2 SE 2.2 0.0 0.0
01:31 4.8 3.5 91 1026.3 2.2 SE 2.2 0.0 0.0
01:32 4.8 3.5 91 1026.3 2.2 SE 2.2 0.0 0.0
01:33 4.8 3.5 91 1026.3 1.6 S 2.2 0.0 0.0
01:34 4.8 3.5 91 1026.4 2.2 S 2.2 0.0 0.0
01:35 4.8 3.5 91 1026.1 1.6 SSE 2.2 0.0 0.0
01:36 4.8 3.5 91 1026.3 1.6 SSE 2.2 0.0 0.0
01:37 4.8 3.5 91 1026.2 1.6 SE 2.2 0.0 0.0
01:38 4.8 3.5 91 1026.1 1.6 SE 2.2 0.0 0.0
01:39 4.8 3.5 91 1026.2 1.6 S 2.2 0.0 0.0
01:40 4.8 3.5 91 1026.1 1.6 SE 2.2 0.0 0.0
01:41 4.7 3.4 91 1026.3 2.2 SSE 2.2 0.0 0.0
01:42 4.7 3.4 91 1026.1 2.2 SE 2.2 0.0 0.0
01:43 4.7 3.4 91 1026.1 2.2 SE 2.2 0.0 0.0
01:44 4.7 3.4 91 1026.2 2.2 S 2.2 0.0 0.0
01:45 4.7 3.4 91 1026.3 2.2 SE 2.2 0.0 0.0
01:46 4.7 3.4 91 1026.1 2.2 S 2.2 0.0 0.0
01:47 4.7 3.4 91 1026.0 2.2 S 2.2 0.0 0.0
01:48 4.7 3.4 91 1026.2 1.6 S 2.2 0.0 0.0
01:49 4.7 3.4 91 1026.3 1.6 S 2.2 0.0 0.0
01:50 4.7 3.4 91 1026.1 1.6 SW 2.2 0.0 0.0
01:51 4.7 3.4 91 1025.9 1.6 S 2.2 0.0 0.0
01:52 4.7 3.4 91 1026.0 2.2 S 2.2 0.0 0.0
01:53 4.7 3.4 91 1026.0 1.6 S 2.2 0.0 0.0
01:54 4.8 3.5 91 1025.9 1.6 S 2.2 0.0 0.0
01:55 4.8 3.5 91 1025.8 1.6 SE 2.2 0.0 0.0
01:56 4.8 3.5 91 1025.7 2.2 S 2.2 0.0 0.0
01:57 4.8 3.5 91 1025.9 2.2 SE 2.2 0.0 0.0
01:58 4.8 3.5 91 1025.7 2.2 S 2.2 0.0 0.0
01:59 4.8 3.5 91 1025.7 2.2 S 2.2 0.0 0.0
02:00 4.8 3.5 91 1025.7 2.2 S 2.2 0.0 0.0
02:01 4.8 3.5 91 1025.7 2.2 SE 2.2 0.0 0.0
02:02 4.8 3.5 91 1025.8 2.2 S 2.2 0.0 0.0
02:03 4.8 3.5 91 1025.9 1.6 SE 2.2 0.0 0.0
02:04 4.8 3.5 91 1025.8 1.6 SE 2.2 0.0 0.0
02:05 4.7 3.4 91 1025.8 1.6 E 2.2 0.0 0.0
02:06 4.7 3.4 91 1025.9 1.6 SE 2.2 0.0 0.0
02:07 4.7 3.4 91 1025.9 1.6 SE 2.2 0.0 0.0
02:08 4.7 3.4 91 1025.7 1.6 S 2.2 0.0 0.0
02:09 4.7 3.4 91 1025.7 1.6 S 2.2 0.0 0.0
02:10 4.7 3.4 91 1025.9 1.6 SE 2.2 0.0 0.0
02:11 4.7 3.4 91 1025.8 0.7 S 2.2 0.0 0.0
02:12 4.7 3.4 91 1025.8 0.7 S 1.6 0.0 0.0
02:13 4.6 3.3 91 1025.9 0.7 S 1.6 0.0 0.0
02:14 4.6 3.3 91 1025.9 0.0 S 1.6 0.0 0.0
02:15 4.6 3.3 91 1025.6 0.7 S 1.6 0.0 0.0
02:16 4.6 3.3 91 1025.7 0.7 S 1.6 0.0 0.0
02:17 4.6 3.3 91 1025.7 0.7 S 1.6 0.0 0.0
02:18 4.6 3.3 91 1025.9 0.7 S 1.6 0.0 0.0
02:19 4.6 3.3 91 1025.5 0.7 S 1.6 0.0 0.0
02:20 4.6 3.3 91 1025.5 0.7 S 1.6 0.0 0.0
02:21 4.6 3.3 91 1025.5 0.7 S 0.7 0.0 0.0
02:22 4.6 3.3 91 1025.7 0.0 NE 0.7 0.0 0.0
02:23 4.6 3.3 91 1025.7 0.7 SE 0.7 0.0 0.0
02:24 4.6 3.3 91 1025.7 1.6 S 1.6 0.0 0.0
02:25 4.6 3.3 91 1025.6 1.6 S 1.6 0.0 0.0
02:26 4.6 3.3 91 1025.7 1.6 S 1.6 0.0 0.0
02:27 4.6 3.3 91 1025.7 0.7 NE 1.6 0.0 0.0
02:28 4.6 3.3 91 1025.7 0.7 NE 1.6 0.0 0.0
02:29 4.6 3.3 91 1025.5 0.7 S 1.6 0.0 0.0
02:30 4.6 3.3 91 1025.7 0.7 SE 1.6 0.0 0.0
02:31 4.6 3.3 91 1025.4 0.7 SE 1.6 0.0 0.0
02:32 4.6 3.3 91 1025.7 0.7 E 1.6 0.0 0.0
02:33 4.6 3.3 91 1025.7 0.7 SE 1.6 0.0 0.0
02:34 4.6 3.3 91 1025.6 0.7 NE 1.6 0.0 0.0
02:36 4.6 3.3 91 1025.5 0.7 E 1.6 0.0 0.0
02:37 4.6 3.3 91 1025.5 0.7 E 0.7 0.0 0.0
02:38 4.6 3.3 91 1025.4 0.7 NE 0.7 0.0 0.0
02:39 4.6 3.3 91 1025.6 0.7 NE 0.7 0.0 0.0
02:40 4.6 3.3 91 1025.6 0.7 NE 0.7 0.0 0.0
02:41 4.6 3.3 91 1025.6 0.7 NE 0.7 0.0 0.0
02:42 4.6 3.3 91 1025.6 0.7 NE 0.7 0.0 0.0
02:43 4.6 3.3 91 1025.5 0.0 NE 0.7 0.0 0.0
02:44 4.6 3.4 92 1025.4 0.0 NE 0.7 0.0 0.0
02:45 4.6 3.4 92 1025.5 0.7 NE 0.7 0.0 0.0
02:46 4.6 3.4 92 1025.4 0.7 NE 0.7 0.0 0.0
02:47 4.6 3.4 92 1025.5 0.7 NE 0.7 0.0 0.0
02:48 4.6 3.4 92 1025.5 0.0 NE 0.7 0.0 0.0
02:49 4.6 3.4 92 1025.4 0.7 NE 0.7 0.0 0.0
02:50 4.6 3.4 92 1025.4 0.7 NE 0.7 0.0 0.0
02:51 4.6 3.4 92 1025.3 0.0 NE 0.7 0.0 0.0
02:52 4.6 3.4 92 1025.4 0.0 NE 0.7 0.0 0.0
02:53 4.7 3.5 92 1025.5 0.0 NE 0.7 0.0 0.0
02:54 4.7 3.5 92 1025.5 0.0 NE 0.7 0.0 0.0
02:55 4.7 3.5 92 1025.4 0.0 NE 0.7 0.0 0.0
02:56 4.7 3.5 92 1025.4 0.0 NE 0.7 0.0 0.0
02:57 4.7 3.5 92 1025.3 0.0 NE 0.7 0.0 0.0
02:58 4.7 3.5 92 1025.3 0.0 NE 0.7 0.0 0.0
02:59 4.7 3.5 92 1025.4 0.0 S 0.7 0.0 0.0
03:00 4.8 3.6 92 1025.3 1.6 S 1.6 0.0 0.0
03:01 4.8 3.6 92 1025.5 0.7 S 1.6 0.0 0.0
03:02 4.8 3.6 92 1025.7 0.7 S 1.6 0.0 0.0
03:03 4.8 3.6 92 1025.4 0.7 S 1.6 0.0 0.0
03:04 4.8 3.6 92 1025.5 0.7 S 1.6 0.0 0.0
03:05 4.8 3.6 92 1025.3 0.7 S 1.6 0.0 0.0
03:06 4.8 3.6 92 1025.3 0.7 S 1.6 0.0 0.0
03:07 4.8 3.6 92 1025.3 0.0 S 1.6 0.0 0.0
03:08 4.8 3.6 92 1025.4 0.0 S 1.6 0.0 0.0
03:09 4.8 3.6 92 1025.1 0.0 N 1.6 0.0 0.0
03:10 4.8 3.6 92 1025.2 0.7 N 0.7 0.0 0.0
03:11 4.9 3.7 92 1025.2 1.6 N 1.6 0.0 0.0
03:12 4.9 3.7 92 1025.2 1.6 N 1.6 0.0 0.0
03:13 4.9 3.7 92 1025.5 0.7 N 1.6 0.0 0.0
03:14 4.9 3.7 92 1025.6 0.7 N 1.6 0.0 0.0
03:15 4.9 3.7 92 1025.3 0.0 N 1.6 0.0 0.0
03:16 5.0 3.8 92 1025.5 0.0 N 1.6 0.0 0.0
03:17 5.0 3.8 92 1025.3 0.0 N 1.6 0.0 0.0
03:18 5.0 3.8 92 1025.4 0.0 N 1.6 0.0 0.0
03:19 5.0 3.8 92 1025.3 0.0 N 1.6 0.0 0.0
03:20 5.0 3.8 92 1025.3 0.0 N 1.6 0.0 0.0
03:21 5.1 3.9 92 1025.3 0.0 N 1.6 0.0 0.0
03:23 5.1 3.9 92 1025.1 0.7 N 0.7 0.0 0.0
03:24 5.1 3.9 92 1025.2 0.7 N 0.7 0.0 0.0
03:25 5.1 4.1 93 1025.0 0.7 N 0.7 0.0 0.0
03:26 5.1 4.1 93 1025.1 0.0 N 0.7 0.0 0.0
03:27 5.2 4.2 93 1025.0 0.0 N 0.7 0.0 0.0
03:28 5.2 4.2 93 1025.1 0.0 N 0.7 0.0 0.0
03:29 5.2 4.2 93 1025.3 0.0 N 0.7 0.0 0.0
03:30 5.2 4.2 93 1025.1 0.0 N 0.7 0.0 0.0
03:31 5.2 4.2 93 1025.2 0.0 N 0.7 0.0 0.0
03:32 5.2 4.2 93 1025.1 0.0 N 0.7 0.0 0.0
03:33 5.2 4.2 93 1025.0 0.0 N 0.7 0.0 0.0
03:34 5.2 4.2 93 1025.0 0.0 N 0.7 0.0 0.0
03:35 5.2 4.2 93 1025.0 0.0 N 0.7 0.0 0.0
03:36 5.2 4.2 93 1025.1 0.7 N 0.7 0.0 0.0
03:37 5.2 4.2 93 1024.9 0.7 NE 0.7 0.0 0.0
03:38 5.2 4.2 93 1025.0 1.6 N 1.6 0.0 0.0
03:39 5.2 4.2 93 1025.0 0.7 NE 1.6 0.0 0.0
03:40 5.2 4.2 93 1025.0 1.6 NE 1.6 0.0 0.0
03:41 5.2 4.2 93 1025.0 1.6 NE 1.6 0.0 0.0
03:42 5.2 4.2 93 1024.9 0.7 NE 1.6 0.0 0.0
03:43 5.2 4.2 93 1025.3 0.7 NE 1.6 0.0 0.0
03:44 5.2 4.2 93 1025.3 0.7 NE 1.6 0.0 0.0
03:45 5.2 4.2 93 1025.0 0.0 NE 1.6 0.0 0.0
03:46 5.2 4.2 93 1024.9 0.0 NE 1.6 0.0 0.0
03:47 5.2 4.2 93 1024.8 0.0 N 1.6 0.0 0.0
03:48 5.2 4.2 93 1024.8 0.0 NW 1.6 0.0 0.0
03:49 5.3 4.3 93 1024.9 0.0 NW 1.6 0.0 0.0
03:50 5.3 4.3 93 1025.0 0.7 NE 1.6 0.0 0.0
03:51 5.3 4.3 93 1025.0 0.0 W 1.6 0.0 0.0
03:52 5.3 4.3 93 1025.0 0.0 W 0.7 0.0 0.0
03:53 5.3 4.3 93 1024.9 0.0 W 0.7 0.0 0.0
03:54 5.3 4.3 93 1024.9 0.0 W 0.7 0.0 0.0
03:55 5.3 4.3 93 1024.8 0.0 W 0.7 0.0 0.0
03:56 5.3 4.3 93 1025.1 0.7 SW 0.7 0.0 0.0
03:57 5.3 4.3 93 1024.9 0.0 SW 0.7 0.0 0.0
03:58 5.3 4.3 93 1024.7 1.6 S 1.6 0.0 0.0
03:59 5.3 4.3 93 1025.0 1.6 SW 1.6 0.0 0.0
04:00 5.3 4.3 93 1024.9 0.7 SW 1.6 0.0 0.0
04:01 5.3 4.3 93 1024.9 0.0 S 1.6 0.0 0.0
04:02 5.3 4.3 93 1024.8 0.0 S 1.6 0.0 0.0
04:03 5.3 4.3 93 1024.9 0.0 S 1.6 0.0 0.0
04:04 5.3 4.3 93 1024.8 0.0 S 1.6 0.0 0.0
04:05 5.3 4.3 93 1025.0 0.0 S 1.6 0.0 0.0
04:06 5.3 4.3 93 1025.0 0.0 S 1.6 0.0 0.0
04:07 5.3 4.3 93 1024.7 0.0 S 1.6 0.0 0.0
04:08 5.3 4.3 93 1024.7 0.0 S 1.6 0.0 0.0
04:09 5.3 4.3 93 1025.0 0.0 N 0.7 0.0 0.0
04:10 5.3 4.3 93 1024.7 0.7 S 0.7 0.0 0.0
04:11 5.3 4.3 93 1024.8 0.0 S 0.7 0.0 0.0
04:12 5.3 4.3 93 1024.8 0.0 S 0.7 0.0 0.0
04:13 5.3 4.3 93 1024.6 0.0 S 0.7 0.0 0.0
04:14 5.3 4.3 93 1024.8 0.0 S 0.7 0.0 0.0
04:15 5.3 4.3 93 1024.6 0.7 E 0.7 0.0 0.0
04:16 5.3 4.3 93 1024.7 0.7 E 0.7 0.0 0.0
04:17 5.3 4.3 93 1024.8 0.7 SW 0.7 0.0 0.0
04:18 5.4 4.4 93 1024.9 0.7 SW 0.7 0.0 0.0
04:20 5.4 4.4 93 1024.6 0.0 SW 0.7 0.0 0.0
04:21 5.4 4.4 93 1024.8 0.0 NE 0.7 0.0 0.0
04:22 5.4 4.4 93 1024.6 0.0 NE 0.7 0.0 0.0
04:23 5.4 4.4 93 1024.7 0.0 NE 0.7 0.0 0.0
04:24 5.4 4.4 93 1024.5 0.0 NE 0.7 0.0 0.0
04:25 5.4 4.4 93 1024.5 0.0 NE 0.7 0.0 0.0
04:26 5.4 4.4 93 1024.7 0.0 NE 0.7 0.0 0.0
04:27 5.4 4.4 93 1024.5 0.7 N 0.7 0.0 0.0
04:28 5.4 4.4 93 1024.6 0.7 N 0.7 0.0 0.0
04:29 5.4 4.4 93 1024.9 0.7 N 0.7 0.0 0.0
04:30 5.4 4.4 93 1024.5 0.0 N 0.7 0.0 0.0
04:31 5.5 4.5 93 1024.6 0.0 N 0.7 0.0 0.0
04:32 5.5 4.5 93 1024.6 0.0 NW 0.7 0.0 0.0
04:33 5.5 4.5 93 1024.5 0.0 S 0.7 0.0 0.0
04:34 5.5 4.5 93 1024.5 0.0 N 0.7 0.0 0.0
04:35 5.6 4.6 93 1024.4 0.7 SE 0.7 0.0 0.0
04:36 5.6 4.6 93 1024.4 0.7 N 0.7 0.0 0.0
04:37 5.6 4.6 93 1024.6 0.7 N 0.7 0.0 0.0
04:38 5.6 4.6 93 1024.4 0.7 NW 0.7 0.0 0.0
04:39 5.6 4.6 93 1024.7 0.7 N 0.7 0.0 0.0
04:40 5.6 4.6 93 1024.7 0.7 N 0.7 0.0 0.0
04:41 5.6 4.6 93 1024.3 0.7 NW 0.7 0.0 0.0
04:42 5.7 4.7 93 1024.3 0.7 N 0.7 0.0 0.0
04:43 5.7 4.7 93 1024.5 0.7 NW 0.7 0.0 0.0
04:44 5.7 4.7 93 1024.7 0.7 WNW 2.2 0.0 0.0
04:45 5.7 4.7 93 1024.5 0.7 N 2.2 0.0 0.0
04:46 5.7 4.7 93 1024.4 0.0 N 2.2 0.0 0.0
04:47 5.7 4.7 93 1024.3 0.0 N 2.2 0.0 0.0
04:48 5.8 4.8 93 1024.8 0.7 N 2.2 0.0 0.0
04:49 5.8 4.8 93 1024.6 0.7 N 2.2 0.0 0.0
04:50 5.8 4.8 93 1024.6 0.7 N 2.2 0.0 0.0
04:51 5.8 4.8 93 1024.5 1.6 NW 2.2 0.0 0.0
04:52 5.8 4.8 93 1024.5 0.7 N 2.2 0.0 0.0
04:53 5.9 4.9 93 1024.3 1.6 NE 2.2 0.0 0.0
04:54 5.8 4.8 93 1024.4 0.7 NW 1.6 0.0 0.0
04:55 5.9 4.9 93 1024.4 0.7 NW 1.6 0.0 0.0
04:56 5.9 4.9 93 1024.6 0.7 W 1.6 0.0 0.0
04:57 5.9 4.9 93 1024.4 2.2 SE 2.2 0.0 0.0
04:58 5.9 4.9 93 1024.3 2.2 NW 2.2 0.0 0.0
04:59 5.9 4.9 93 1024.4 1.6 NE 2.2 0.0 0.0
05:00 5.9 4.9 93 1024.4 1.6 S 2.2 0.0 0.0
05:01 5.9 4.9 93 1024.3 1.6 S 2.2 0.0 0.0
05:02 5.9 4.9 93 1024.3 1.6 S 2.2 0.0 0.0
05:03 5.9 4.9 93 1024.4 1.6 S 2.2 0.0 0.0
05:04 5.9 4.9 93 1024.4 1.6 S 2.2 0.0 0.0
05:05 5.9 4.9 93 1024.2 1.6 S 2.2 0.0 0.0
05:06 6.0 5.0 93 1024.4 0.7 NW 2.2 0.0 0.0
05:07 6.0 5.0 93 1024.2 0.7 E 2.2 0.0 0.0
05:08 6.0 5.0 93 1024.2 0.7 N 2.2 0.0 0.0
05:09 6.0 5.0 93 1024.3 0.7 NE 1.6 0.0 0.0
05:10 6.0 5.0 93 1024.3 1.6 NE 1.6 0.0 0.0
05:11 6.0 5.0 93 1024.1 0.7 NW 1.6 0.0 0.0
05:12 6.0 5.0 93 1024.2 1.6 SW 1.6 0.0 0.0
05:13 6.0 5.0 93 1024.2 0.7 N 1.6 0.0 0.0
05:14 6.1 5.1 93 1024.3 0.7 N 1.6 0.0 0.0
05:15 6.1 5.1 93 1024.3 0.7 W 1.6 0.0 0.0
05:16 6.1 5.1 93 1024.2 0.7 W 1.6 0.0 0.0
05:17 6.1 5.1 93 1024.3 0.7 N 1.6 0.0 0.0
05:18 6.1 5.1 93 1024.2 1.6 NE 1.6 0.0 0.0
05:19 6.1 5.1 93 1024.2 1.6 N 1.6 0.0 0.0
05:20 6.1 5.1 93 1024.1 1.6 NW 1.6 0.0 0.0
05:21 6.1 5.1 93 1024.2 0.7 N 1.6 0.0 0.0
05:22 6.1 5.1 93 1024.2 0.7 N 1.6 0.0 0.0
05:23 6.1 5.1 93 1024.2 0.7 N 1.6 0.0 0.0
05:24 6.1 5.1 93 1023.9 0.7 E 1.6 0.0 0.0
05:25 6.1 5.1 93 1024.2 1.6 SE 1.6 0.0 0.0
05:26 6.2 5.2 93 1024.0 0.7 N 1.6 0.0 0.0
05:27 6.2 5.2 93 1024.1 0.7 SE 1.6 0.0 0.0
05:28 6.2 5.2 93 1024.1 2.2 N 2.2 0.0 0.0
05:29 6.2 5.2 93 1024.1 2.2 NE 2.2 0.0 0.0
05:30 6.2 5.2 93 1024.3 0.7 N 2.2 0.0 0.0
05:31 6.2 5.2 93 1024.2 0.7 N 2.2 0.0 0.0
05:32 6.3 5.3 93 1024.1 0.7 N 2.2 0.0 0.0
05:33 6.3 5.3 93 1024.1 0.7 N 2.2 0.0 0.0
05:34 6.3 5.3 93 1024.0 0.7 SE 2.2 0.0 0.0
05:35 6.3 5.3 93 1024.0 0.7 N 2.2 0.0 0.0
05:36 6.3 5.3 93 1024.0 1.6 N 2.2 0.0 0.0
05:37 6.3 5.3 93 1024.0 1.6 N 2.2 0.0 0.0
05:38 6.3 5.3 93 1023.7 1.6 SE 2.2 0.0 0.0
05:39 6.3 5.3 93 1024.2 2.2 SE 2.2 0.0 0.0
05:40 6.3 5.3 93 1024.0 2.2 S 2.2 0.0 0.0
05:41 6.4 5.4 93 1024.3 2.2 S 2.2 0.0 0.0
05:42 6.4 5.4 93 1024.1 2.2 S 2.2 0.0 0.0
05:43 6.4 5.4 93 1024.0 1.6 S 2.2 0.0 0.0
05:44 6.4 5.4 93 1024.2 2.2 SW 2.2 0.0 0.0
05:45 6.4 5.4 93 1024.1 2.2 W 2.2 0.0 0.0
05:46 6.4 5.4 93 1024.2 1.6 W 2.2 0.0 0.0
05:47 6.4 5.4 93 1024.1 0.7 S 2.2 0.0 0.0
05:48 6.5 5.5 93 1024.0 1.6 S 2.2 0.0 0.0
05:49 6.5 5.5 93 1024.1 1.6 E 2.2 0.0 0.0
05:50 6.5 5.5 93 1024.1 1.6 NW 2.2 0.0 0.0
05:51 6.5 5.5 93 1024.1 1.6 NW 2.2 0.0 0.0
05:52 6.5 5.5 93 1024.1 0.7 NE 2.2 0.0 0.0
05:53 6.5 5.5 93 1024.0 0.7 NW 2.2 0.0 0.0
05:54 6.5 5.5 93 1024.1 0.7 NW 2.2 0.0 0.0
05:55 6.5 5.5 93 1023.8 0.7 NW 2.2 0.0 0.0
05:56 6.5 5.3 92 1024.1 0.7 S 1.6 0.0 0.0
05:57 6.5 5.3 92 1024.0 0.7 S 1.6 0.0 0.0
05:58 6.5 5.3 92 1024.0 0.7 NE 1.6 0.0 0.0
05:59 6.5 5.3 92 1024.1 0.7 N 1.6 0.0 0.0
06:00 6.5 5.3 92 1023.9 0.7 N 1.6 0.0 0.0
06:01 6.5 5.3 92 1023.9 0.7 N 0.7 0.0 0.0
06:02 6.5 5.3 92 1024.1 0.7 S 0.7 0.0 0.0
06:03 6.5 5.3 92 1024.1 0.7 SE 0.7 0.0 0.0
06:04 6.5 5.3 92 1024.1 1.6 S 1.6 0.0 0.0
06:05 6.5 5.3 92 1024.1 2.2 S 2.2 0.0 0.0
06:06 6.5 5.3 92 1024.1 2.2 SE 2.2 0.0 0.0
06:07 6.5 5.3 92 1024.1 2.2 SE 2.2 0.0 0.0
06:08 6.5 5.3 92 1024.1 2.2 S 2.2 0.0 0.0
06:09 6.5 5.3 92 1024.0 2.2 E 2.2 0.0 0.0
06:10 6.5 5.3 92 1024.1 2.2 S 2.2 0.0 0.0
06:11 6.5 5.3 92 1023.9 2.2 SE 2.2 0.0 0.0
06:12 6.6 5.4 92 1024.0 1.6 NW 2.2 0.0 0.0
06:13 6.6 5.4 92 1024.1 1.6 E 2.2 0.0 0.0
06:14 6.6 5.4 92 1024.1 1.6 W 2.2 0.0 0.0
06:15 6.6 5.4 92 1024.3 0.7 NE 2.2 0.0 0.0
06:16 6.6 5.4 92 1024.1 0.7 SE 2.2 0.0 0.0
06:17 6.6 5.4 92 1024.0 1.6 S 2.2 0.0 0.0
06:18 6.6 5.4 92 1024.2 0.7 NW 2.2 0.0 0.0
06:19 6.6 5.4 92 1024.0 1.6 SSW 2.2 0.0 0.0
06:20 6.6 5.4 92 1024.0 1.6 E 2.2 0.0 0.0
06:21 6.6 5.4 92 1024.3 1.6 N 2.2 0.0 0.0
06:22 6.6 5.4 92 1023.9 1.6 NE 1.6 0.0 0.0
06:23 6.6 5.4 92 1024.1 1.6 SW 1.6 0.0 0.0
06:24 6.6 5.4 92 1023.9 1.6 SW 1.6 0.0 0.0
06:25 6.6 5.4 92 1023.8 2.2 N 2.2 0.0 0.0
06:26 6.6 5.4 92 1023.8 1.6 NE 2.2 0.0 0.0
06:27 6.6 5.4 92 1024.0 1.6 N 2.2 0.0 0.0
06:28 6.6 5.4 92 1024.0 1.6 E 2.2 0.0 0.0
06:29 6.6 5.4 92 1024.0 1.6 E 2.2 0.0 0.0
06:30 6.6 5.4 92 1024.0 1.6 N 2.2 0.0 0.0
06:31 6.6 5.4 92 1024.1 1.6 N 2.2 0.0 0.0
06:32 6.6 5.4 92 1023.9 1.6 W 2.2 0.0 0.0
06:33 6.6 5.4 92 1024.1 1.6 SW 2.2 0.0 0.0
06:34 6.6 5.4 92 1023.9 1.6 SE 2.2 0.0 0.0
06:35 6.6 5.4 92 1023.9 0.7 SE 2.2 0.0 0.0
06:36 6.6 5.4 92 1023.9 1.6 NE 1.6 0.0 0.0
06:37 6.6 5.4 92 1023.9 1.6 SW 1.6 0.0 0.0
06:38 6.6 5.4 92 1023.8 1.6 W 1.6 0.0 0.0
06:39 6.6 5.4 92 1023.7 2.2 SE 2.2 0.0 0.0
06:40 6.6 5.4 92 1023.8 3.1 NW 3.1 0.0 0.0
06:41 6.6 5.4 92 1023.7 3.1 S 3.1 0.0 0.0
06:42 6.6 5.4 92 1023.8 3.1 S 3.1 0.0 0.0
06:43 6.6 5.4 92 1023.8 3.1 SSE 3.1 0.0 0.0
06:44 6.6 5.4 92 1023.8 3.8 SE 3.8 0.0 0.0
06:45 6.6 5.4 92 1023.8 3.8 S 3.8 0.0 0.0
06:46 6.6 5.4 92 1024.1 3.1 SE 3.8 0.0 0.0
06:47 6.6 5.4 92 1023.9 1.6 SSE 3.8 0.0 0.0
06:48 6.7 5.5 92 1023.8 2.2 E 3.8 0.0 0.0
06:49 6.6 5.4 92 1023.8 2.2 E 3.8 0.0 0.0
06:50 6.7 5.5 92 1023.7 3.1 NW 3.8 0.0 0.0
06:51 6.6 5.4 92 1023.8 2.2 W 3.8 0.0 0.0
06:52 6.7 5.5 92 1023.8 1.6 NE 3.8 0.0 0.0
06:53 6.7 5.5 92 1024.0 1.6 SW 3.8 0.0 0.0
06:54 6.7 5.5 92 1024.0 2.2 S 3.8 0.0 0.0
06:55 6.7 5.5 92 1023.7 1.6 N 3.8 0.0 0.0
06:56 6.7 5.5 92 1023.7 1.6 W 3.1 0.0 0.0
06:57 6.7 5.5 92 1023.9 2.2 N 3.1 0.0 0.0
06:58 6.7 5.5 92 1023.8 0.7 NE 3.1 0.0 0.0
06:59 6.7 5.5 92 1024.0 0.7 N 3.1 0.0 0.0
07:00 6.7 5.5 92 1023.8 0.7 N 2.2 0.0 0.0
07:01 6.7 5.5 92 1023.8 0.7 N 2.2 0.0 0.0
07:02 6.7 5.5 92 1023.8 0.7 N 2.2 0.0 0.0
07:03 6.7 5.5 92 1023.8 0.7 N 2.2 0.0 0.0
07:04 6.7 5.5 92 1023.7 0.7 N 2.2 0.0 0.0
07:05 6.7 5.5 92 1023.7 0.7 N 2.2 0.0 0.0
07:06 6.7 5.5 92 1023.7 3.1 E 3.1 0.0 0.0
07:07 6.7 5.5 92 1023.9 5.4 S 5.4 0.0 0.0
07:08 6.7 5.5 92 1023.9 1.6 SE 5.4 0.0 0.0
07:09 6.7 5.5 92 1023.8 1.6 E 5.4 0.0 0.0
07:10 6.8 5.6 92 1023.7 1.6 NE 5.4 0.0 0.0
07:11 6.8 5.6 92 1023.9 1.6 NE 5.4 0.0 0.0
07:12 6.8 5.6 92 1024.2 0.7 W 5.4 0.0 0.0
07:13 6.8 5.6 92 1023.9 1.6 E 5.4 0.0 0.0
07:14 6.8 5.6 92 1023.8 0.7 N 5.4 0.0 0.0
07:15 6.8 5.6 92 1024.0 0.7 N 5.4 0.0 0.0
07:16 6.8 5.6 92 1024.0 0.7 W 5.4 0.0 0.0
07:17 6.8 5.6 92 1023.9 0.7 ESE 5.4 0.0 0.0
07:18 6.8 5.6 92 1023.9 0.7 N 1.6 0.0 0.0
07:19 6.8 5.6 92 1023.9 0.7 NE 1.6 0.0 0.0
07:20 6.8 5.6 92 1023.8 0.7 N 1.6 0.0 0.0
07:21 6.8 5.6 92 1023.8 0.7 SSE 1.6 0.0 0.0
07:22 6.8 5.6 92 1023.9 0.0 N 1.6 0.0 0.0
07:23 6.8 5.6 92 1023.9 0.7 N 1.6 0.0 0.0
07:24 6.8 5.6 92 1023.9 0.7 N 1.6 0.0 0.0
07:25 6.8 5.6 92 1023.8 0.7 N 1.6 0.0 0.0
07:26 6.8 5.6 92 1024.0 0.7 N 1.6 0.0 0.0
07:27 6.8 5.6 92 1023.9 0.7 N 1.6 0.0 0.0
07:28 6.8 5.6 92 1023.9 0.7 SE 1.6 0.0 0.0
07:29 6.7 5.5 92 1023.7 0.7 W 1.6 0.0 0.0
07:30 6.7 5.5 92 1023.9 0.7 N 0.7 0.0 0.0
07:31 6.7 5.5 92 1023.9 0.7 N 0.7 0.0 0.0
07:32 6.7 5.5 92 1023.9 0.7 NW 0.7 0.0 0.0
07:33 6.7 5.5 92 1023.9 0.7 NW 0.7 0.0 0.0
07:34 6.7 5.5 92 1023.9 1.6 NE 1.6 0.0 0.0
07:35 6.7 5.5 92 1023.8 1.6 NW 1.6 0.0 0.0
07:36 6.7 5.5 92 1023.7 0.7 NW 1.6 0.0 0.0
07:37 6.7 5.5 92 1023.8 0.7 NW 1.6 0.0 0.0
07:38 6.7 5.5 92 1023.7 0.7 NE 1.6 0.0 0.0
07:39 6.7 5.5 92 1023.8 0.7 NE 1.6 0.0 0.0
07:40 6.7 5.5 92 1023.8 0.7 NE 1.6 0.0 0.0
07:41 6.8 5.6 92 1023.9 0.7 N 1.6 0.0 0.0
07:42 6.8 5.6 92 1023.8 0.7 S 1.6 0.0 0.0
07:43 6.8 5.6 92 1023.8 0.7 SW 1.6 0.0 0.0
07:44 6.8 5.6 92 1023.7 1.6 N 1.6 0.0 0.0
07:45 6.8 5.6 92 1023.7 0.7 SW 1.6 0.0 0.0
07:46 6.8 5.6 92 1023.9 0.7 NE 1.6 0.0 0.0
07:47 6.8 5.6 92 1023.7 0.7 N 1.6 0.0 0.0
07:48 6.8 5.6 92 1023.8 1.6 S 1.6 0.0 0.0
07:49 6.8 5.6 92 1024.0 1.6 S 1.6 0.0 0.0
07:50 6.8 5.6 92 1023.8 0.7 SE 1.6 0.0 0.0
07:51 6.8 5.6 92 1023.7 0.7 SE 1.6 0.0 0.0
07:52 6.8 5.6 92 1023.9 0.7 N 1.6 0.0 0.0
07:53 6.8 5.6 92 1023.7 0.7 S 1.6 0.0 0.0
07:54 6.8 5.6 92 1023.9 0.7 SW 1.6 0.0 0.0
07:55 6.8 5.6 92 1023.8 1.6 NE 1.6 0.0 0.0
07:56 6.8 5.6 92 1023.7 3.8 SE 3.8 0.0 0.0
07:57 6.8 5.6 92 1024.0 6.0 E 6.0 0.0 0.0
07:58 6.9 5.7 92 1023.7 4.5 S 6.0 0.0 0.0
07:59 6.9 5.7 92 1023.7 4.5 S 6.0 0.0 0.0
08:00 6.9 5.7 92 1023.7 3.8 S 6.0 0.0 0.0
08:01 6.9 5.7 92 1023.6 3.8 S 6.0 0.0 0.0
08:02 6.9 5.7 92 1023.6 3.8 S 6.0 0.0 0.0
08:03 6.9 5.7 92 1023.6 3.8 S 6.0 0.0 0.0
08:04 6.9 5.7 92 1023.7 3.8 S 6.0 0.0 0.0
08:05 6.9 5.7 92 1023.7 3.8 S 6.0 0.0 0.0
08:06 6.9 5.7 92 1023.6 3.8 S 6.0 0.0 0.0
08:07 6.9 5.7 92 1023.7 3.1 SE 4.5 0.0 0.0
08:08 6.9 5.7 92 1023.8 2.2 SE 4.5 0.0 0.0
08:09 7.0 5.8 92 1023.7 2.2 SE 3.8 0.0 0.0
08:10 7.0 5.8 92 1023.7 3.8 SE 3.8 0.0 0.0
08:11 7.0 5.8 92 1023.7 3.8 E 3.8 0.0 0.0
08:12 7.0 5.8 92 1023.7 3.1 E 3.8 0.0 0.0
08:13 7.0 5.8 92 1023.5 4.5 S 4.5 0.0 0.0
08:14 7.0 5.8 92 1023.8 3.8 S 4.5 0.0 0.0
08:15 7.0 5.8 92 1023.6 5.4 S 5.4 0.0 0.0
08:16 7.0 5.8 92 1023.8 3.1 S 5.4 0.0 0.0
08:17 7.0 5.8 92 1023.9 4.5 SE 5.4 0.0 0.0
08:18 7.0 5.8 92 1023.7 5.4 S 5.4 0.0 0.0
08:19 7.0 5.8 92 1023.7 6.9 S 6.9 0.0 0.0
08:20 7.1 5.9 92 1023.9 5.4 S 6.9 0.0 0.0
08:21 7.1 5.9 92 1023.8 5.4 S 6.9 0.0 0.0
08:22 7.1 5.9 92 1023.7 6.0 SE 6.9 0.0 0.0
08:23 7.1 5.9 92 1023.7 4.5 SE 6.9 0.0 0.0
08:24 7.1 5.9 92 1024.0 4.5 SE 6.9 0.0 0.0
08:25 7.1 5.9 92 1024.0 4.5 S 6.9 0.0 0.0
08:26 7.1 5.9 92 1023.8 4.5 SW 6.9 0.0 0.0
08:27 7.1 5.9 92 1023.8 4.5 SW 6.9 0.0 0.0
08:28 7.2 6.0 92 1023.8 5.4 S 6.9 0.0 0.0
08:29 7.2 6.0 92 1023.9 5.4 S 6.9 0.0 0.0
08:30 7.2 6.0 92 1024.1 4.5 S 6.0 0.0 0.0
08:31 7.2 6.0 92 1023.8 4.5 S 6.0 0.0 0.0
08:32 7.2 6.0 92 1023.8 6.0 S 6.0 0.0 0.0
08:33 7.2 5.8 91 1024.1 6.0 S 6.0 0.0 0.0
08:34 7.2 5.8 91 1023.7 3.8 SE 6.0 0.0 0.0
08:35 7.2 5.8 91 1023.7 6.0 S 6.0 0.0 0.0
08:36 7.2 5.8 91 1024.0 6.0 SSW 6.0 0.0 0.0
08:37 7.2 5.8 91 1023.9 4.5 S 6.0 0.0 0.0
08:38 7.2 5.8 91 1024.0 5.4 SSW 6.0 0.0 0.0
08:39 7.2 5.8 91 1024.0 5.4 S 6.0 0.0 0.0
08:40 7.2 5.8 91 1023.9 5.4 S 6.0 0.0 0.0
08:41 7.2 5.8 91 1023.8 5.4 S 6.0 0.0 0.0
08:42 7.2 5.8 91 1023.9 5.4 S 6.0 0.0 0.0
08:43 7.2 5.8 91 1024.0 3.8 S 6.0 0.0 0.0
08:44 7.2 5.8 91 1023.9 3.8 S 6.0 0.0 0.0
08:45 7.2 5.8 91 1024.1 6.0 S 6.0 0.0 0.0
08:46 7.2 5.7 90 1023.9 3.1 SSW 6.0 0.0 0.0
08:47 7.2 5.7 90 1024.0 3.8 S 6.0 0.0 0.0
08:48 7.2 5.7 90 1023.8 4.5 E 6.0 0.0 0.0
08:49 7.2 5.7 90 1023.8 4.5 SW 6.0 0.0 0.0
08:50 7.2 5.7 90 1023.7 3.1 S 6.0 0.0 0.0
08:51 7.2 5.7 90 1024.0 3.1 S 6.0 0.0 0.0
08:52 7.2 5.7 90 1023.9 3.8 S 6.0 0.0 0.0
08:53 7.2 5.7 90 1024.0 3.8 SSE 6.0 0.0 0.0
08:54 7.2 5.7 90 1023.9 3.1 S 6.0 0.0 0.0
08:55 7.2 5.7 90 1023.8 4.5 S 4.5 0.0 0.0
08:56 7.2 5.7 90 1023.8 4.5 SE 4.5 0.0 0.0
08:57 7.2 5.7 90 1023.9 4.5 SE 4.5 0.0 0.0
08:58 7.2 5.7 90 1023.7 3.8 S 4.5 0.0 0.0
08:59 7.2 5.7 90 1023.7 3.8 SE 4.5 0.0 0.0
09:00 7.2 5.7 90 1023.8 3.8 N 4.5 0.0 0.0
09:01 7.2 5.7 90 1023.9 3.8 N 4.5 0.0 0.0
09:02 7.2 5.7 90 1024.0 3.8 N 4.5 0.0 0.0
09:03 7.2 5.7 90 1023.9 3.8 N 4.5 0.0 0.0
09:04 7.2 5.7 90 1023.9 3.8 N 4.5 0.0 0.0
09:05 7.2 5.7 90 1023.7 3.8 N 4.5 0.0 0.0
09:06 7.3 5.6 89 1023.9 2.2 S 4.5 0.0 0.0
09:07 7.3 5.6 89 1023.9 3.1 S 3.8 0.0 0.0
09:08 7.3 5.6 89 1023.8 3.1 S 3.8 0.0 0.0
09:09 7.3 5.6 89 1023.7 3.1 S 3.8 0.0 0.0
09:10 7.3 5.6 89 1023.8 3.1 S 3.8 0.0 0.0
09:11 7.3 5.6 89 1023.9 3.1 S 3.8 0.0 0.0
09:12 7.3 5.6 89 1023.9 3.1 S 3.8 0.0 0.0
09:13 7.3 5.6 89 1023.7 3.1 SSE 3.8 0.0 0.0
09:14 7.3 5.6 89 1024.0 3.1 SE 3.8 0.0 0.0
09:15 7.3 5.6 89 1023.9 3.1 SE 3.8 0.0 0.0
09:16 7.3 5.6 89 1023.9 2.2 SE 3.8 0.0 0.0
09:17 7.3 5.6 89 1023.9 1.6 SE 3.1 0.0 0.0
09:18 7.3 5.6 89 1023.9 1.6 S 3.1 0.0 0.0
09:19 7.3 5.6 89 1024.0 1.6 S 3.1 0.0 0.0
09:20 7.3 5.6 89 1024.1 2.2 SE 3.1 0.0 0.0
09:21 7.3 5.6 89 1023.9 2.2 SE 3.1 0.0 0.0
09:22 7.3 5.6 89 1023.9 1.6 SE 3.1 0.0 0.0
09:23 7.3 5.6 89 1023.7 2.2 SE 3.1 0.0 0.0
09:24 7.3 5.6 89 1023.7 2.2 SE 3.1 0.0 0.0
09:25 7.3 5.6 89 1023.7 3.1 SW 3.1 0.0 0.0
09:26 7.3 5.6 89 1023.8 3.1 SW 3.1 0.0 0.0
09:27 7.3 5.6 89 1024.0 4.5 SE 4.5 0.0 0.0
09:28 7.3 5.6 89 1023.8 3.8 S 4.5 0.0 0.0
09:29 7.3 5.6 89 1023.9 4.5 S 4.5 0.0 0.0
09:30 7.3 5.6 89 1023.9 4.5 SE 4.5 0.0 0.0
09:31 7.3 5.6 89 1023.9 4.5 S 4.5 0.0 0.0
09:32 7.4 5.7 89 1023.8 4.5 S 4.5 0.0 0.0
09:33 7.4 5.7 89 1023.9 3.1 E 4.5 0.0 0.0
09:34 7.4 5.7 89 1023.8 3.8 S 4.5 0.0 0.0
09:35 7.4 5.7 89 1023.8 3.8 S 4.5 0.0 0.0
09:36 7.4 5.7 89 1023.9 3.8 SE 4.5 0.0 0.0
09:37 7.4 5.7 89 1024.0 3.8 SE 4.5 0.0 0.0
09:38 7.4 5.7 89 1024.0 3.8 S 4.5 0.0 0.0
09:39 7.4 5.7 89 1024.0 3.8 S 4.5 0.0 0.0
09:40 7.5 4.6 82 1023.8 3.1 SSE 4.5 0.0 0.0
09:41 7.5 4.6 82 1023.9 3.8 SE 4.5 0.0 0.0
09:42 7.5 4.6 82 1024.0 3.8 SE 4.5 0.0 0.0
09:43 7.5 4.6 82 1023.9 3.1 S 3.8 0.0 0.0
09:44 7.5 4.6 82 1024.1 2.2 SE 3.8 0.0 0.0
09:45 7.5 4.6 82 1024.1 2.2 S 3.8 0.0 0.0
09:46 7.5 4.6 82 1024.0 3.8 S 3.8 0.0 0.0
09:47 7.5 4.6 82 1023.9 2.2 S 3.8 0.0 0.0
09:48 7.5 4.6 82 1024.0 2.2 S 3.8 0.0 0.0
09:49 7.5 4.6 82 1023.9 2.2 S 3.8 0.0 0.0
09:50 7.5 4.6 82 1024.1 2.2 N 3.8 0.0 0.0
09:51 7.5 4.6 82 1023.8 1.6 S 3.8 0.0 0.0
09:52 7.5 4.6 82 1024.0 1.6 S 3.8 0.0 0.0
09:53 7.5 4.6 82 1024.0 1.6 S 3.8 0.0 0.0
09:54 7.5 4.6 82 1023.8 1.6 S 3.8 0.0 0.0
09:55 7.5 4.6 82 1024.0 1.6 S 3.8 0.0 0.0
09:56 7.5 4.6 82 1024.0 3.1 SW 3.8 0.0 0.0
09:57 7.5 4.6 82 1024.1 3.1 SE 3.1 0.0 0.0
09:58 7.5 4.6 82 1023.9 3.1 SE 3.1 0.0 0.0
09:59 7.5 4.6 82 1023.9 2.2 SE 3.1 0.0 0.0
10:00 7.5 4.6 82 1023.9 3.8 SE 3.8 0.0 0.0
10:01 7.5 4.6 82 1024.1 3.8 S 3.8 0.0 0.0
10:02 7.5 4.6 82 1024.0 3.8 S 3.8 0.0 0.0
10:03 7.5 4.6 82 1024.0 3.8 S 3.8 0.0 0.0
10:04 7.5 4.6 82 1023.9 3.8 S 3.8 0.0 0.0
10:05 7.5 4.6 82 1023.8 3.8 S 3.8 0.0 0.0
10:06 7.6 4.7 82 1024.1 3.8 S 3.8 0.0 0.0
10:07 7.6 4.7 82 1024.1 3.8 S 3.8 0.0 0.0
10:08 7.6 4.7 82 1024.1 5.4 S 5.4 0.0 0.0
10:09 7.6 4.7 82 1024.0 5.4 S 5.4 0.0 0.0
10:10 7.6 4.7 82 1024.0 6.9 S 6.9 0.0 0.0
10:11 7.6 4.7 82 1024.0 5.4 SSE 6.9 0.0 0.0
10:12 7.7 4.8 82 1024.2 4.5 SW 6.9 0.0 0.0
10:13 7.7 4.8 82 1023.9 4.5 SW 6.9 0.0 0.0
10:14 7.7 4.8 82 1024.0 3.8 S 6.9 0.0 0.0
10:15 7.7 4.8 82 1024.2 3.8 S 6.9 0.0 0.0
10:16 7.7 4.8 82 1024.2 3.8 S 6.9 0.0 0.0
10:17 7.7 4.8 82 1024.2 3.8 S 6.9 0.0 0.0
10:18 7.8 4.9 82 1024.0 3.8 SSE 6.9 0.0 0.0
10:19 7.8 4.9 82 1024.0 6.0 SSE 6.9 0.0 0.0
10:20 7.8 4.9 82 1023.9 6.0 SSE 6.0 0.0 0.0
10:21 7.8 4.9 82 1024.2 6.0 SSE 6.0 0.0 0.0
10:22 7.8 4.9 82 1024.2 4.5 SW 6.0 0.0 0.0
10:23 7.8 4.9 82 1024.0 5.4 SW 6.0 0.0 0.0
10:24 7.8 4.9 82 1024.1 5.4 S 6.0 0.0 0.0
10:25 7.8 4.9 82 1023.9 6.0 SW 6.0 0.0 0.0
10:26 7.8 4.9 82 1024.0 6.0 SW 6.0 0.0 0.0
10:27 7.8 4.9 82 1024.1 6.0 SW 6.0 0.0 0.0
10:28 7.9 5.0 82 1023.9 7.6 SW 7.6 0.0 0.0
10:29 7.9 4.8 81 1024.1 6.9 S 7.6 0.0 0.0
10:30 7.9 4.8 81 1024.1 6.0 SW 7.6 0.0 0.0
10:31 7.9 4.8 81 1024.1 6.0 SW 7.6 0.0 0.0
10:32 7.9 4.8 81 1024.1 6.0 SW 7.6 0.0 0.0
10:33 8.0 4.9 81 1024.0 5.4 SE 7.6 0.0 0.0
10:34 8.0 4.9 81 1024.0 4.5 S 7.6 0.0 0.0
10:35 8.0 4.9 81 1024.0 4.5 S 7.6 0.0 0.0
10:36 8.0 4.9 81 1024.0 9.2 SW 9.2 0.0 0.0
10:37 8.0 4.9 81 1024.1 9.2 SW 9.2 0.0 0.0
10:38 8.0 4.9 81 1024.1 9.2 SW 9.2 0.0 0.0
10:39 8.1 4.9 80 1024.0 5.4 SW 9.2 0.0 0.0
10:40 8.1 4.9 80 1024.1 7.6 SSW 9.2 0.0 0.0
10:41 8.1 4.9 80 1024.0 6.0 S 9.2 0.0 0.0
10:42 8.1 4.9 80 1024.0 7.6 SW 9.2 0.0 0.0
10:43 8.1 4.9 80 1024.0 5.4 S 9.2 0.0 0.0
10:44 8.1 4.9 80 1024.0 4.5 S 9.2 0.0 0.0
10:45 8.1 4.9 80 1023.9 4.5 S 9.2 0.0 0.0
10:46 8.2 5.0 80 1023.9 4.5 SW 9.2 0.0 0.0
10:47 8.2 5.0 80 1023.9 4.5 S 9.2 0.0 0.0
10:48 8.2 5.0 80 1023.9 5.4 S 7.6 0.0 0.0
10:49 8.2 5.0 80 1023.9 5.4 S 7.6 0.0 0.0
10:50 8.2 5.0 80 1024.0 5.4 SW 7.6 0.0 0.0
10:51 8.2 5.0 80 1024.1 5.4 SSW 7.6 0.0 0.0
10:52 8.2 4.8 79 1023.9 4.5 S 7.6 0.0 0.0
10:53 8.2 4.8 79 1023.8 4.5 S 5.4 0.0 0.0
10:54 8.2 4.8 79 1024.0 4.5 S 5.4 0.0 0.0
10:55 8.3 4.9 79 1024.0 3.8 S 5.4 0.0 0.0
10:56 8.3 4.9 79 1023.9 3.8 S 5.4 0.0 0.0
10:57 8.3 4.9 79 1024.1 4.5 S 5.4 0.0 0.0
10:58 8.3 4.9 79 1024.0 4.5 S 5.4 0.0 0.0
10:59 8.3 4.9 79 1024.1 3.1 SW 5.4 0.0 0.0
11:00 8.3 4.9 79 1024.1 3.1 SW 5.4 0.0 0.0
11:01 8.3 4.9 79 1023.8 3.1 SW 4.5 0.0 0.0
11:02 8.3 4.9 79 1024.0 3.1 SW 4.5 0.0 0.0
11:03 8.3 4.9 79 1023.9 3.1 SW 4.5 0.0 0.0
11:04 8.3 4.9 79 1023.8 3.1 SW 4.5 0.0 0.0
11:05 8.3 4.9 79 1024.1 3.1 SW 4.5 0.0 0.0
11:06 8.3 4.9 79 1023.9 3.1 SW 4.5 0.0 0.0
11:07 8.3 4.9 79 1024.0 4.5 S 4.5 0.0 0.0
11:08 8.4 5.0 79 1024.0 3.8 SE 4.5 0.0 0.0
11:09 8.4 5.0 79 1023.9 4.5 SE 4.5 0.0 0.0
11:10 8.4 5.0 79 1023.7 3.8 SE 4.5 0.0 0.0
11:11 8.4 5.0 79 1023.7 4.5 S 4.5 0.0 0.0
11:12 8.4 5.0 79 1023.8 5.4 S 5.4 0.0 0.0
11:13 8.4 5.0 79 1024.1 5.4 SSW 5.4 0.0 0.0
11:14 8.4 5.0 79 1024.0 3.8 S 5.4 0.0 0.0
11:15 8.4 5.0 79 1024.0 3.8 S 5.4 0.0 0.0
11:16 8.4 5.0 79 1023.8 3.8 S 5.4 0.0 0.0
11:17 8.4 5.0 79 1023.8 3.8 S 5.4 0.0 0.0
11:18 8.4 5.0 79 1023.8 3.8 S 5.4 0.0 0.0
11:19 8.4 5.0 79 1024.1 3.8 S 5.4 0.0 0.0
11:20 8.4 5.0 79 1023.9 3.1 S 5.4 0.0 0.0
11:21 8.4 5.0 79 1023.9 4.5 SW 5.4 0.0 0.0
11:22 8.4 5.0 79 1023.8 4.5 S 5.4 0.0 0.0
11:23 8.4 5.0 79 1023.8 4.5 S 5.4 0.0 0.0
11:24 8.4 5.0 79 1023.8 4.5 S 4.5 0.0 0.0
11:25 8.4 5.0 79 1024.1 4.5 S 4.5 0.0 0.0
11:26 8.4 5.0 79 1023.8 4.5 S 4.5 0.0 0.0
11:27 8.4 5.0 79 1023.9 4.5 SE 4.5 0.0 0.0
11:28 8.4 5.0 79 1023.8 4.5 SSE 4.5 0.0 0.0
11:29 8.5 5.1 79 1023.9 4.5 S 4.5 0.0 0.0
11:30 8.5 5.1 79 1023.8 3.1 SW 4.5 0.0 0.0
11:31 8.5 5.1 79 1023.8 3.8 S 4.5 0.0 0.0
11:32 8.5 5.1 79 1023.9 3.8 S 4.5 0.0 0.0
11:33 8.5 5.1 79 1023.9 6.0 S 6.0 0.0 0.0
11:34 8.5 5.2 80 1023.7 3.8 SSE 6.0 0.0 0.0
11:35 8.5 5.2 80 1024.0 3.8 S 6.0 0.0 0.0
11:36 8.5 5.2 80 1023.7 4.5 S 6.0 0.0 0.0
11:37 8.5 5.2 80 1023.7 4.5 S 6.0 0.0 0.0
11:38 8.5 5.2 80 1023.9 3.1 S 6.0 0.0 0.0
11:39 8.6 5.3 80 1023.9 3.8 SE 6.0 0.0 0.0
11:40 8.6 5.3 80 1023.8 3.1 S 6.0 0.0 0.0
11:41 8.6 5.3 80 1023.9 3.1 S 6.0 0.0 0.0
11:42 8.6 5.3 80 1023.9 3.1 SSE 6.0 0.0 0.0
11:43 8.6 5.3 80 1023.6 4.5 S 6.0 0.0 0.0
11:44 8.6 5.3 80 1023.8 4.5 SE 5.4 0.0 0.0
11:45 8.6 5.3 80 1023.8 4.5 S 5.4 0.0 0.0
11:46 8.7 5.4 80 1023.7 3.8 S 5.4 0.0 0.0
11:47 8.7 5.4 80 1023.8 3.8 SSE 5.4 0.0 0.0
11:48 8.7 5.4 80 1023.6 3.1 S 5.4 0.0 0.0
11:49 8.8 5.5 80 1023.5 3.8 SE 5.4 0.0 0.0
11:50 8.8 5.5 80 1023.7 3.8 S 5.4 0.0 0.0
11:51 8.9 5.6 80 1023.8 3.8 S 5.4 0.0 0.0
11:52 8.9 5.6 80 1023.3 4.5 S 5.4 0.0 0.0
11:53 8.9 5.6 80 1023.7 4.5 S 5.4 0.0 0.0
11:54 8.9 5.6 80 1023.5 4.5 S 4.5 0.0 0.0
11:55 9.0 5.7 80 1023.6 3.8 S 4.5 0.0 0.0
11:56 9.0 5.7 80 1023.6 4.5 S 5.4 0.0 0.0
11:57 9.0 5.7 80 1023.6 3.8 SW 5.4 0.0 0.0
11:58 9.0 5.7 80 1023.5 6.9 S 6.9 0.0 0.0
11:59 9.1 5.8 80 1023.6 6.0 S 6.9 0.0 0.0
12:00 9.1 5.8 80 1023.6 4.5 S 6.9 0.0 0.0
12:01 9.1 5.8 80 1023.3 3.8 S 6.9 0.0 0.0
12:02 9.1 5.8 80 1023.6 3.8 S 6.9 0.0 0.0
12:03 9.2 5.9 80 1023.6 4.5 S 6.9 0.0 0.0
12:04 9.2 5.9 80 1023.6 5.4 SW 6.9 0.0 0.0
12:05 9.2 5.9 80 1023.5 6.0 SW 6.9 0.0 0.0
12:06 9.2 5.9 80 1023.4 7.6 S 8.3 0.0 0.0
12:07 9.2 5.9 80 1023.4 7.6 S 8.3 0.0 0.0
12:08 9.2 5.8 79 1023.4 6.0 S 8.3 0.0 0.0
12:09 9.2 5.8 79 1023.2 6.0 S 8.3 0.0 0.0
12:10 9.3 5.8 79 1023.3 6.9 SSE 8.3 0.0 0.0
12:11 9.3 5.8 79 1023.5 6.9 SW 8.3 0.0 0.0
12:12 9.3 5.8 79 1023.3 6.0 S 8.3 0.0 0.0
12:13 9.3 5.8 79 1023.4 5.4 S 8.3 0.0 0.0
12:14 9.3 5.8 79 1023.4 5.4 S 8.3 0.0 0.0
12:15 9.3 5.8 79 1023.4 6.9 S 8.3 0.0 0.0
12:16 9.3 5.8 79 1023.3 6.9 SW 7.6 0.0 0.0
12:17 9.3 5.8 79 1023.3 6.9 SE 7.6 0.0 0.0
12:18 9.3 5.8 79 1023.3 6.0 SE 6.9 0.0 0.0
12:19 9.3 5.8 79 1023.1 7.6 S 7.6 0.0 0.0
12:20 9.3 5.8 79 1023.4 7.6 S 7.6 0.0 0.0
12:21 9.3 5.8 79 1023.3 5.4 SE 7.6 0.0 0.0
12:22 9.3 5.8 79 1023.1 5.4 S 7.6 0.0 0.0
12:23 9.3 5.8 79 1023.3 6.0 S 7.6 0.0 0.0
12:24 9.3 5.8 79 1023.3 6.0 S 7.6 0.0 0.0
12:25 9.3 5.8 79 1023.3 6.9 S 7.6 0.0 0.0
12:26 9.3 5.8 79 1023.1 7.6 S 7.6 0.0 0.0
12:27 9.4 5.9 79 1023.2 7.6 S 7.6 0.0 0.0
12:28 9.4 5.9 79 1023.1 6.0 S 7.6 0.0 0.0
12:29 9.4 5.9 79 1023.2 7.6 S 7.6 0.0 0.0
12:30 9.5 6.0 79 1023.2 7.6 S 7.6 0.0 0.0
12:31 9.5 6.0 79 1023.2 7.6 SE 7.6 0.0 0.0
12:32 9.6 6.1 79 1023.1 9.2 S 9.2 0.0 0.0
12:33 9.7 6.2 79 1023.2 6.9 S 9.2 0.0 0.0
12:34 9.8 6.3 79 1023.0 5.4 S 9.2 0.0 0.0
12:35 9.8 6.3 79 1023.1 6.0 SW 9.2 0.0 0.0
12:36 9.8 6.3 79 1023.1 6.9 W 9.2 0.0 0.0
12:37 9.9 6.4 79 1023.0 6.9 SE 9.2 0.0 0.0
12:38 9.9 6.4 79 1023.3 9.2 S 9.2 0.0 0.0
12:39 9.9 6.4 79 1023.3 9.2 S 9.2 0.0 0.0
12:40 10.0 6.5 79 1023.0 8.3 S 9.2 0.0 0.0
12:41 10.0 6.5 79 1023.2 9.8 SW 9.8 0.0 0.0
12:42 10.0 6.5 79 1022.7 12.1 S 12.1 0.0 0.0
12:43 10.1 6.6 79 1023.1 10.7 S 12.1 0.0 0.0
12:44 10.1 6.6 79 1023.1 12.1 S 12.1 0.0 0.0
12:45 10.1 6.6 79 1023.1 9.8 W 12.1 0.0 0.0
12:46 10.1 6.6 79 1022.9 9.8 SW 12.1 0.0 0.0
12:47 10.0 6.5 79 1023.0 12.1 S 12.1 0.0 0.0
12:48 10.0 6.5 79 1022.8 10.7 S 12.1 0.0 0.0
12:49 10.0 6.5 79 1023.0 8.3 S 12.1 0.0 0.0
12:50 9.9 6.4 79 1022.9 8.3 S 12.1 0.0 0.0
12:51 9.9 6.4 79 1022.9 8.3 S 12.1 0.0 0.0
12:52 9.9 6.4 79 1022.9 8.3 S 12.1 0.0 0.0
12:53 9.8 6.3 79 1022.8 8.3 S 12.1 0.0 0.0
12:54 9.8 6.3 79 1023.0 9.8 S 12.1 0.0 0.0
12:55 9.8 6.3 79 1023.0 10.7 S 12.1 0.0 0.0
12:56 9.8 6.3 79 1022.9 10.7 NNE 12.1 0.0 0.0
12:57 9.7 6.2 79 1022.9 10.7 S 12.1 0.0 0.0
12:58 9.7 6.2 79 1023.1 9.8 S 10.7 0.0 0.0
12:59 9.7 6.2 79 1022.8 11.4 S 11.4 0.0 0.0
13:00 9.7 6.2 79 1022.9 9.8 S 11.4 0.0 0.0
13:01 9.7 6.2 79 1022.8 9.8 S 11.4 0.0 0.0
13:02 9.7 6.2 79 1023.0 9.8 S 11.4 0.0 0.0
13:03 9.7 6.2 79 1023.1 9.8 S 11.4 0.0 0.0
13:04 9.7 6.2 79 1022.7 9.8 S 11.4 0.0 0.0
13:05 9.7 6.2 79 1022.8 9.8 S 11.4 0.0 0.0
13:06 9.6 6.3 80 1022.7 7.6 SW 11.4 0.0 0.0
13:07 9.6 6.3 80 1022.9 7.6 S 11.4 0.0 0.0
13:08 9.6 6.3 80 1022.9 9.2 SW 11.4 0.0 0.0
13:09 9.6 6.3 80 1023.0 8.3 S 9.8 0.0 0.0
13:10 9.6 6.3 80 1022.7 9.2 SW 9.8 0.0 0.0
13:11 9.6 6.3 80 1022.9 7.6 SW 9.8 0.0 0.0
13:12 9.5 6.2 80 1022.8 9.8 W 9.8 0.0 0.0
13:13 9.5 6.2 80 1022.7 9.8 SSW 9.8 0.0 0.0
13:14 9.5 6.2 80 1022.8 9.8 SW 9.8 0.0 0.0
13:15 9.5 6.2 80 1022.7 7.6 SW 9.8 0.0 0.0
13:16 9.6 6.3 80 1022.8 11.4 S 11.4 0.0 0.0
13:17 9.6 6.3 80 1022.6 13.6 S 13.6 0.0 0.0
13:18 9.6 6.3 80 1022.7 12.1 SW 13.6 0.0 0.0
13:19 9.7 6.4 80 1022.9 12.1 SW 13.6 0.0 0.0
13:20 9.8 6.7 81 1022.8 18.3 S 18.3 0.0 0.0
13:21 9.8 6.7 81 1022.8 12.1 SSW 18.3 0.0 0.0
13:22 9.9 6.8 81 1022.8 15.9 S 18.3 0.0 0.0
13:23 9.9 6.8 81 1022.7 13.0 S 18.3 0.0 0.0
13:24 9.9 6.8 81 1022.7 15.2 S 18.3 0.0 0.0
13:25 9.9 6.8 81 1022.8 15.2 S 18.3 0.0 0.0
13:26 9.9 6.8 81 1022.6 13.0 S 18.3 0.0 0.0
13:27 9.9 6.8 81 1022.9 11.4 SW 18.3 0.0 0.0
13:28 9.9 6.8 81 1022.6 9.2 S 18.3 0.0 0.0
13:29 9.9 6.8 81 1022.7 8.3 S 18.3 0.0 0.0
13:30 10.0 6.9 81 1022.9 13.0 S 18.3 0.0 0.0
13:31 10.0 6.9 81 1022.6 16.8 SW 16.8 0.0 0.0
13:32 10.0 6.9 81 1022.6 12.1 SE 16.8 0.0 0.0
13:33 10.0 6.9 81 1022.6 13.0 SW 16.8 0.0 0.0
13:34 10.0 6.9 81 1022.7 14.5 S 16.8 0.0 0.0
13:35 10.0 6.7 80 1022.6 15.2 SE 16.8 0.0 0.0
13:36 9.9 6.6 80 1022.4 15.9 SW 16.8 0.0 0.0
13:37 9.8 6.5 80 1022.7 15.9 SW 16.8 0.0 0.0
13:38 9.8 6.5 80 1022.5 11.4 SW 16.8 0.0 0.0
13:39 9.7 6.4 80 1022.6 12.1 S 16.8 0.0 0.0
13:40 9.7 6.4 80 1022.6 13.6 S 16.8 0.0 0.0
13:41 9.7 6.4 80 1022.6 13.0 S 15.9 0.0 0.0
13:42 9.6 6.3 80 1022.7 11.4 S 15.9 0.0 0.0
13:43 9.6 6.3 80 1022.4 11.4 SW 15.9 0.0 0.0
13:44 9.6 6.3 80 1022.4 11.4 SW 15.9 0.0 0.0
13:45 9.6 6.3 80 1022.5 11.4 S 15.9 0.0 0.0
13:46 9.6 6.3 80 1022.5 11.4 SSW 15.9 0.0 0.0
13:47 9.6 6.3 80 1022.4 14.5 SW 15.9 0.0 0.0
13:48 9.6 6.3 80 1022.3 13.0 S 14.5 0.0 0.0
13:49 9.6 6.5 81 1022.3 13.0 SW 14.5 0.0 0.0
13:50 9.6 6.5 81 1022.6 15.9 S 15.9 0.0 0.0
13:51 9.7 6.6 81 1022.4 13.6 SW 15.9 0.0 0.0
13:52 9.7 6.6 81 1022.3 12.1 SW 15.9 0.0 0.0
13:53 9.7 6.6 81 1022.4 12.1 SW 15.9 0.0 0.0
13:54 9.8 6.7 81 1022.6 13.6 S 15.9 0.0 0.0
13:55 9.8 6.7 81 1022.4 15.2 SW 15.9 0.0 0.0
13:56 9.8 6.7 81 1022.5 13.6 S 15.9 0.0 0.0
13:57 9.8 6.7 81 1022.4 12.1 SW 15.9 0.0 0.0
13:58 9.8 6.7 81 1022.4 9.8 SW 15.9 0.0 0.0
13:59 9.8 6.7 81 1022.4 9.8 SW 15.9 0.0 0.0
14:00 9.8 6.7 81 1022.3 15.2 S 15.9 0.0 0.0
14:01 9.8 6.7 81 1022.4 15.2 SW 15.2 0.0 0.0
14:02 9.7 6.6 81 1022.2 13.0 S 15.2 0.0 0.0
14:03 9.7 6.6 81 1022.4 13.0 S 15.2 0.0 0.0
14:04 9.7 6.6 81 1022.4 13.6 SW 15.2 0.0 0.0
14:05 9.7 6.6 81 1022.3 9.8 SW 15.2 0.0 0.0
14:06 9.7 6.6 81 1022.3 13.0 SW 15.2 0.0 0.0
14:07 9.7 6.6 81 1022.5 13.6 SW 15.2 0.0 0.0
14:08 9.7 6.6 81 1022.4 12.1 S 15.2 0.0 0.0
14:09 9.7 6.6 81 1022.0 13.0 S 15.2 0.0 0.0
14:10 9.7 6.6 81 1022.2 12.1 S 15.2 0.0 0.0
14:11 9.6 6.5 81 1022.2 12.1 SSW 13.6 0.0 0.0
14:12 9.6 6.5 81 1022.2 12.1 W 13.6 0.0 0.0
14:13 9.6 6.5 81 1022.1 8.3 S 13.6 0.0 0.0
14:14 9.6 6.5 81 1022.2 9.2 SW 13.6 0.0 0.0
14:15 9.6 6.5 81 1022.2 9.2 SW 13.6 0.0 0.0
14:16 9.6 6.5 81 1022.1 10.7 S 13.6 0.0 0.0
14:17 9.6 6.5 81 1022.3 9.2 S 13.6 0.0 0.0
14:18 9.6 6.5 81 1022.2 13.0 S 13.6 0.0 0.0
14:19 9.6 6.5 81 1022.3 8.3 S 13.6 0.0 0.0
14:20 9.6 6.5 81 1022.1 13.0 S 13.6 0.0 0.0
14:21 9.6 6.5 81 1021.9 13.6 S 13.6 0.0 0.0
14:22 9.6 6.5 81 1022.0 9.2 S 13.6 0.0 0.0
14:23 9.6 6.5 81 1022.1 9.2 SW 13.6 0.0 0.0
14:24 9.6 6.5 81 1022.1 9.8 S 13.6 0.0 0.0
14:25 9.7 6.6 81 1022.0 9.8 S 13.6 0.0 0.0
14:26 9.7 6.6 81 1022.0 11.4 S 13.6 0.0 0.0
14:27 9.7 6.6 81 1022.1 6.9 S 13.6 0.0 0.0
14:28 9.7 6.6 81 1022.0 8.3 S 13.6 0.0 0.0
14:29 9.7 6.6 81 1022.1 11.4 S 13.6 0.0 0.0
14:30 9.7 6.6 81 1022.1 13.6 S 13.6 0.0 0.0
14:31 9.7 6.6 81 1022.1 13.6 S 13.6 0.0 0.0
14:32 9.6 6.5 81 1021.9 9.8 S 13.6 0.0 0.0
14:33 9.6 6.5 81 1022.1 15.9 S 15.9 0.0 0.0
14:34 9.6 6.5 81 1022.0 14.5 W 15.9 0.0 0.0
14:35 9.6 6.5 81 1021.8 11.4 W 15.9 0.0 0.0
14:36 9.6 6.5 81 1021.9 8.3 S 15.9 0.0 0.0
14:37 9.6 6.5 81 1021.9 9.8 SSE 15.9 0.0 0.0
14:38 9.6 6.5 81 1021.9 8.3 S 15.9 0.0 0.0
14:39 9.6 6.5 81 1022.1 9.8 SW 15.9 0.0 0.0
14:41 9.6 6.5 81 1021.9 6.9 S 15.9 0.0 0.0
14:42 9.6 6.5 81 1021.9 12.1 SW 15.9 0.0 0.0
14:43 9.6 6.5 81 1021.8 11.4 S 14.5 0.0 0.0
14:44 9.6 6.7 82 1021.8 9.2 S 12.1 0.0 0.0
14:45 9.6 6.7 82 1022.0 10.7 W 12.1 0.0 0.0
14:46 9.6 6.7 82 1021.9 8.3 S 12.1 0.0 0.0
14:47 9.6 6.7 82 1022.0 9.8 SW 12.1 0.0 0.0
14:48 9.6 6.7 82 1022.0 7.6 SW 12.1 0.0 0.0
14:49 9.6 6.7 82 1022.0 9.8 S 12.1 0.0 0.0
14:50 9.6 6.7 82 1021.9 9.8 S 12.1 0.0 0.0
14:51 9.6 6.7 82 1021.9 11.4 SSW 12.1 0.0 0.0
14:52 9.6 6.7 82 1022.0 15.2 WSW 15.2 0.0 0.0
14:53 9.6 6.7 82 1021.9 10.7 S 15.2 0.0 0.0
14:54 9.6 6.7 82 1021.9 9.8 S 15.2 0.0 0.0
14:55 9.6 6.7 82 1021.9 11.4 SW 15.2 0.0 0.0
14:56 9.7 6.8 82 1022.1 10.7 S 15.2 0.0 0.0
14:57 9.7 6.8 82 1021.9 10.7 S 15.2 0.0 0.0
14:58 9.7 6.8 82 1022.0 13.0 S 15.2 0.0 0.0
14:59 9.7 6.8 82 1022.1 12.1 WSW 15.2 0.0 0.0
15:00 9.7 6.8 82 1022.1 12.1 WSW 15.2 0.0 0.0
15:01 9.7 6.8 82 1021.9 12.1 WSW 15.2 0.0 0.0
15:02 9.7 6.8 82 1022.1 12.1 WSW 15.2 0.0 0.0
15:03 9.7 6.8 82 1022.0 12.1 WSW 13.0 0.0 0.0
15:04 9.7 6.8 82 1022.0 12.1 WSW 13.0 0.0 0.0
15:05 9.7 6.8 82 1022.0 12.1 WSW 13.0 0.0 0.0
15:06 9.7 6.8 82 1022.1 12.1 WSW 13.0 0.0 0.0
15:07 9.5 6.6 82 1021.9 9.8 S 13.0 0.0 0.0
15:08 9.5 6.6 82 1022.2 9.8 S 13.0 0.0 0.0
15:09 9.5 6.6 82 1022.0 7.6 SE 12.1 0.0 0.0
15:10 9.5 6.6 82 1022.0 7.6 S 12.1 0.0 0.0
15:11 9.5 6.6 82 1022.1 10.7 W 12.1 0.0 0.0
15:12 9.5 6.6 82 1022.1 9.2 S 12.1 0.0 0.0
15:13 9.5 6.8 83 1022.0 7.6 S 12.1 0.0 0.0
15:14 9.5 6.8 83 1021.8 11.4 SW 12.1 0.0 0.0
15:15 9.5 6.8 83 1022.1 9.2 SW 12.1 0.0 0.0
15:16 9.5 6.8 83 1022.2 9.8 S 11.4 0.0 0.0
15:17 9.5 6.8 83 1022.1 10.7 S 11.4 0.0 0.0
15:18 9.4 6.7 83 1022.0 13.0 S 13.0 0.0 0.0
15:19 9.4 6.7 83 1022.2 7.6 SW 13.0 0.0 0.0
15:20 9.4 6.7 83 1021.9 13.6 SW 13.6 0.0 0.0
15:21 9.4 6.7 83 1022.2 13.6 S 13.6 0.0 0.0
15:22 9.4 6.7 83 1021.9 9.8 S 13.6 0.0 0.0
15:23 9.4 6.7 83 1021.9 8.3 SW 13.6 0.0 0.0
15:24 9.4 6.7 83 1022.0 8.3 S 13.6 0.0 0.0
15:25 9.4 6.7 83 1022.0 7.6 S 13.6 0.0 0.0
15:26 9.4 6.7 83 1021.9 9.2 SW 13.6 0.0 0.0
15:27 9.4 6.7 83 1022.0 10.7 S 13.6 0.0 0.0
15:28 9.4 6.7 83 1021.9 11.4 SW 13.6 0.0 0.0
15:29 9.3 6.6 83 1021.9 11.4 S 13.6 0.0 0.0
15:30 9.3 6.7 84 1021.9 11.4 SSW 13.6 0.0 0.0
15:31 9.3 6.7 84 1021.8 10.7 SW 11.4 0.0 0.0
15:32 9.3 6.7 84 1022.0 9.8 W 11.4 0.0 0.0
15:33 9.3 6.7 84 1022.1 8.3 S 11.4 0.0 0.0
15:34 9.3 6.7 84 1021.8 9.2 S 11.4 0.0 0.0
15:35 9.3 6.7 84 1021.9 6.9 S 11.4 0.0 0.0
15:36 9.3 6.7 84 1021.9 7.6 W 11.4 0.0 0.0
15:37 9.3 6.7 84 1021.9 7.6 SW 11.4 0.0 0.0
15:38 9.3 6.7 84 1021.8 6.0 S 11.4 0.0 0.0
15:39 9.3 6.7 84 1021.8 6.0 S 11.4 0.0 0.0
15:40 9.3 6.7 84 1021.9 9.8 SE 11.4 0.0 0.0
15:41 9.2 6.6 84 1021.8 8.3 SSW 10.7 0.0 0.0
15:42 9.2 6.6 84 1021.9 8.3 S 9.8 0.0 0.0
15:43 9.2 6.6 84 1021.8 8.3 SW 9.8 0.0 0.0
15:44 9.2 6.6 84 1021.8 8.3 S 9.8 0.0 0.0
15:45 9.2 6.8 85 1021.8 8.3 SE 9.8 0.0 0.0
15:46 9.2 6.8 85 1021.9 8.3 S 9.8 0.0 0.0
15:47 9.2 6.8 85 1021.9 7.6 S 9.8 0.0 0.0
15:48 9.2 6.8 85 1021.8 10.7 SW 11.4 0.0 0.0
15:49 9.2 6.8 85 1021.9 9.8 S 11.4 0.0 0.0
15:50 9.2 6.8 85 1021.7 6.9 S 11.4 0.0 0.0
15:51 9.2 6.8 85 1021.9 6.9 S 11.4 0.0 0.0
15:52 9.1 6.7 85 1021.8 7.6 SW 11.4 0.0 0.0
15:53 9.1 6.7 85 1021.9 7.6 S 11.4 0.0 0.0
15:54 9.1 6.7 85 1021.8 7.6 SE 11.4 0.0 0.0
15:55 9.1 6.7 85 1021.9 6.9 S 11.4 0.0 0.0
15:56 9.1 6.7 85 1021.8 6.9 S 11.4 0.0 0.0
15:57 9.1 6.7 85 1021.9 6.9 SW 11.4 0.0 0.0
15:58 9.1 6.7 85 1021.7 6.9 S 10.7 0.8 0.1
15:59 9.1 6.7 85 1021.6 7.6 S 9.8 0.8 0.1
16:00 9.0 6.6 85 1021.8 7.6 S 8.3 0.8 0.1
16:01 9.0 6.6 85 1021.9 8.3 S 8.3 0.8 0.1
16:02 9.0 6.8 86 1021.6 9.8 S 9.8 0.8 0.1
16:03 9.0 6.8 86 1021.8 8.3 S 9.8 0.0 0.1
16:04 9.0 6.8 86 1021.8 8.3 S 9.8 0.0 0.1
16:05 9.0 6.8 86 1021.8 9.2 S 9.8 0.0 0.1
16:06 9.0 6.8 86 1021.6 7.6 SW 9.8 0.0 0.1
16:07 8.9 6.7 86 1021.9 6.0 S 9.8 0.0 0.1
16:08 9.0 6.8 86 1021.6 6.9 S 9.8 0.0 0.1
16:09 8.9 6.7 86 1021.7 3.8 SW 9.8 0.8 0.1
16:10 8.9 6.7 86 1021.6 4.5 SE 9.8 0.8 0.1
16:11 8.9 6.7 86 1021.5 6.0 S 9.8 0.8 0.1
16:12 8.9 6.7 86 1021.6 6.0 SE 9.2 0.8 0.1
16:13 8.9 6.9 87 1021.5 5.4 SSE 9.2 0.8 0.1
16:14 8.9 6.9 87 1021.5 6.9 S 9.2 0.0 0.1
16:15 8.9 6.9 87 1021.5 6.9 S 9.2 0.0 0.1
16:16 8.9 6.9 87 1021.7 4.5 S 7.6 0.0 0.1
16:17 8.9 6.9 87 1021.7 6.0 SE 6.9 0.0 0.1
16:18 8.9 6.9 87 1021.7 4.5 SE 6.9 0.8 0.2
16:19 8.9 6.9 87 1021.8 10.7 E 10.7 0.8 0.2
16:20 8.9 6.9 87 1021.6 6.9 SE 10.7 0.8 0.2
16:21 8.9 6.9 87 1021.6 6.9 S 10.7 0.8 0.2
16:22 8.9 6.9 87 1021.5 6.9 S 10.7 0.8 0.2
16:23 8.9 6.9 87 1021.7 6.9 S 10.7 0.0 0.2
16:24 8.9 7.0 88 1021.7 8.3 SW 10.7 0.0 0.2
16:25 8.9 7.0 88 1021.6 9.2 S 10.7 0.0 0.2
16:26 8.9 7.0 88 1021.7 9.2 S 10.7 0.0 0.2
16:27 8.9 7.0 88 1021.4 10.7 S 10.7 0.0 0.2
16:28 8.9 7.0 88 1021.6 9.8 S 10.7 0.0 0.2
16:29 8.9 7.0 88 1021.5 6.9 S 10.7 0.0 0.2
16:30 8.9 7.0 88 1021.8 7.6 S 10.7 0.0 0.3
16:31 8.9 7.0 88 1021.6 7.6 S 10.7 0.8 0.3
16:32 8.9 7.0 88 1021.5 8.3 S 10.7 0.8 0.3
16:33 8.9 7.0 88 1021.7 8.3 S 10.7 0.8 0.3
16:34 8.9 7.2 89 1021.6 6.9 S 10.7 0.8 0.3
16:35 8.9 7.2 89 1021.6 8.3 S 10.7 0.8 0.3
16:36 8.9 7.2 89 1021.6 8.3 WSW 10.7 0.0 0.3
16:37 8.9 7.2 89 1021.7 8.3 WSW 10.7 0.0 0.3
16:38 8.9 7.2 89 1021.6 6.9 S 9.8 0.8 0.3
16:39 8.9 7.2 89 1021.7 6.9 SW 8.3 0.8 0.3
16:40 8.9 7.2 89 1021.7 6.9 S 8.3 0.8 0.3
16:41 8.9 7.2 89 1021.3 6.9 SW 8.3 0.8 0.3
16:42 8.9 7.2 89 1021.7 5.4 SW 8.3 0.8 0.3
16:43 8.9 7.2 89 1021.6 6.0 S 8.3 0.0 0.3
16:44 8.9 7.2 89 1021.6 7.6 SE 8.3 0.0 0.3
16:45 8.9 7.2 89 1021.6 7.6 S 8.3 0.0 0.3
16:46 8.9 7.2 89 1021.6 6.9 S 8.3 0.0 0.3
16:47 8.9 7.2 89 1021.6 6.9 S 7.6 0.0 0.3
16:48 8.9 7.2 89 1021.6 6.9 S 7.6 0.0 0.3
16:49 8.9 7.2 89 1021.6 7.6 S 7.6 0.8 0.4
16:50 8.9 7.2 89 1021.7 7.6 SW 7.6 0.8 0.4
16:51 8.9 7.2 89 1021.6 6.0 S 7.6 0.8 0.4
16:52 8.8 7.1 89 1021.7 3.8 SE 7.6 0.8 0.4
16:53 8.8 7.1 89 1021.7 6.9 S 7.6 1.5 0.4
16:54 8.8 7.1 89 1021.7 4.5 SE 7.6 0.8 0.4
16:55 8.8 7.1 89 1021.8 5.4 S 7.6 0.8 0.4
16:56 8.8 7.3 90 1021.7 5.4 S 7.6 1.5 0.5
16:57 8.8 7.3 90 1021.6 3.8 SW 7.6 1.5 0.5
16:58 8.8 7.3 90 1021.7 6.0 NW 7.6 0.8 0.5
16:59 8.8 7.3 90 1021.8 7.6 SE 7.6 0.8 0.5
17:00 8.8 7.3 90 1021.6 7.6 S 7.6 0.8 0.5
17:01 8.8 7.3 90 1021.7 7.6 S 7.6 0.0 0.5
17:02 8.8 7.3 90 1021.5 7.6 S 7.6 0.0 0.5
17:03 8.8 7.3 90 1021.5 7.6 S 7.6 0.0 0.5
17:04 8.8 7.3 90 1021.5 7.6 S 7.6 0.0 0.5
17:05 8.8 7.3 90 1021.5 7.6 S 7.6 0.0 0.5
17:06 8.7 7.2 90 1021.4 5.4 S 7.6 0.8 0.6
17:07 8.7 7.2 90 1021.6 5.4 SSE 7.6 0.8 0.6
17:08 8.6 7.1 90 1021.6 5.4 S 7.6 0.8 0.6
17:09 8.6 7.1 90 1021.4 3.8 SE 7.6 0.8 0.6
17:10 8.6 7.1 90 1021.5 5.4 SE 7.6 0.8 0.6
17:11 8.6 7.1 90 1021.5 5.4 S 7.6 0.0 0.6
17:12 8.6 7.1 90 1021.4 5.4 S 7.6 0.0 0.6
17:13 8.6 7.1 90 1021.6 4.5 S 7.6 0.0 0.6
17:14 8.6 7.1 90 1021.4 3.1 SE 7.6 0.0 0.6
17:15 8.6 7.1 90 1021.6 3.8 S 7.6 0.0 0.6
17:16 8.5 7.0 90 1021.5 3.8 SSE 6.9 0.0 0.6
17:17 8.5 7.0 90 1021.5 5.4 S 5.4 0.0 0.6
17:18 8.5 7.0 90 1021.6 3.8 S 5.4 0.0 0.6
17:19 8.5 7.0 90 1021.3 3.1 E 5.4 0.0 0.6
17:20 8.5 7.0 90 1021.5 3.8 S 5.4 0.0 0.6
17:21 8.5 7.0 90 1021.7 3.8 SW 5.4 0.0 0.6
17:22 8.5 7.0 90 1021.8 4.5 S 5.4 0.0 0.6
17:23 8.5 7.0 90 1021.8 4.5 S 5.4 0.0 0.6
17:24 8.5 7.0 90 1021.8 3.1 SW 5.4 0.0 0.6
17:25 8.5 7.0 90 1021.5 3.8 S 5.4 0.0 0.6
17:26 8.5 7.0 90 1021.5 3.8 S 5.4 0.0 0.6
17:27 8.5 7.0 90 1021.6 4.5 SW 4.5 0.0 0.6
17:28 8.5 7.0 90 1021.6 5.4 SE 5.4 0.0 0.6
17:29 8.5 7.0 90 1021.8 5.4 S 5.4 0.0 0.6
17:30 8.5 7.0 90 1021.6 4.5 S 5.4 0.0 0.6
17:31 8.4 6.9 90 1021.5 5.4 S 5.4 0.0 0.6
17:32 8.4 6.9 90 1021.5 5.4 S 5.4 0.0 0.6
17:33 8.4 6.9 90 1021.6 5.4 NNE 5.4 0.0 0.6
17:34 8.4 6.9 90 1021.6 5.4 NNE 5.4 0.0 0.6
17:35 8.4 6.9 90 1021.7 4.5 WSW 5.4 0.0 0.6
17:36 8.5 7.0 90 1021.7 7.6 S 7.6 0.0 0.6
17:37 8.5 7.0 90 1021.7 8.3 SW 8.3 0.0 0.6
17:38 8.5 7.0 90 1021.8 6.9 SW 8.3 0.0 0.6
17:39 8.5 7.0 90 1021.7 9.2 S 9.2 0.0 0.6
17:40 8.5 7.0 90 1021.8 9.2 S 9.2 0.0 0.6
17:41 8.5 7.0 90 1021.7 8.3 SW 9.2 0.0 0.6
17:42 8.5 7.0 90 1021.8 6.9 NW 9.2 0.0 0.6
17:43 8.6 7.1 90 1021.9 7.6 SW 9.2 0.0 0.6
17:44 8.6 7.1 90 1021.9 7.6 S 9.2 0.0 0.6
17:45 8.6 7.2 91 1021.7 9.2 SW 9.2 0.0 0.6
17:46 8.7 7.3 91 1021.8 8.3 SW 9.2 0.0 0.6
17:47 8.7 7.3 91 1021.7 7.6 S 9.2 0.0 0.6
17:48 8.7 7.3 91 1021.7 8.3 S 9.2 0.0 0.6
17:49 8.7 7.3 91 1022.0 8.3 SW 9.2 0.0 0.6
17:50 8.7 7.3 91 1021.8 6.9 S 9.2 0.0 0.6
17:51 8.8 7.4 91 1021.9 6.9 SW 9.2 0.0 0.6
17:52 8.8 7.4 91 1021.7 6.9 SE 9.2 0.0 0.6
17:53 8.8 7.4 91 1021.8 6.9 S 9.2 0.0 0.6
17:54 8.8 7.4 91 1022.0 6.0 SW 9.2 0.0 0.6
17:55 8.8 7.4 91 1021.8 7.6 S 9.2 0.0 0.6
17:56 8.8 7.4 91 1021.7 7.6 SW 8.3 0.0 0.6
17:57 8.8 7.4 91 1021.9 6.9 SW 8.3 0.0 0.6
17:58 8.9 7.5 91 1021.7 6.0 S 8.3 0.0 0.6
17:59 8.9 7.5 91 1021.7 7.6 SW 7.6 0.0 0.6
18:00 8.9 7.5 91 1021.7 7.6 SW 7.6 0.0 0.6
18:01 8.9 7.5 91 1021.9 7.6 SW 7.6 0.0 0.6
18:02 8.9 7.5 91 1022.0 7.6 SW 7.6 0.0 0.6
18:03 8.9 7.5 91 1021.8 7.6 SW 7.6 0.0 0.6
18:04 8.9 7.5 91 1021.9 7.6 SW 7.6 0.0 0.6
18:05 8.9 7.5 91 1021.9 7.6 SW 7.6 0.0 0.6
18:06 8.8 7.4 91 1021.9 6.9 SW 7.6 0.0 0.6
18:07 8.8 7.4 91 1021.9 6.9 SW 7.6 0.0 0.6
18:08 8.8 7.4 91 1021.8 5.4 S 7.6 0.0 0.6
18:09 8.8 7.4 91 1021.9 5.4 SW 7.6 0.0 0.6
18:10 8.8 7.4 91 1022.1 5.4 SW 7.6 0.0 0.6
18:11 8.7 7.3 91 1021.8 5.4 SW 7.6 0.0 0.6
18:12 8.7 7.3 91 1021.7 4.5 SW 7.6 0.0 0.6
18:13 8.7 7.3 91 1021.9 3.8 S 7.6 0.0 0.6
18:14 8.7 7.3 91 1021.9 3.8 S 7.6 0.0 0.6
18:15 8.7 7.3 91 1021.8 3.8 S 7.6 0.0 0.6
18:16 8.6 7.2 91 1021.8 3.8 S 7.6 0.0 0.6
18:17 8.6 7.2 91 1021.8 3.8 S 6.0 0.0 0.6
18:18 8.6 7.2 91 1021.8 4.5 S 5.4 0.0 0.6
18:19 8.6 7.2 91 1021.7 4.5 S 5.4 0.0 0.6
18:20 8.6 7.2 91 1021.9 5.4 SW 5.4 0.0 0.6
18:21 8.6 7.2 91 1021.7 3.8 SW 5.4 0.0 0.6
18:22 8.6 7.2 91 1021.9 4.5 SW 5.4 0.0 0.6
18:23 8.6 7.2 91 1022.0 5.4 S 5.4 0.0 0.6
18:24 8.6 7.2 91 1021.9 5.4 S 5.4 0.0 0.6
18:25 8.6 7.2 91 1021.9 5.4 S 5.4 0.0 0.6
18:26 8.7 7.3 91 1021.8 4.5 SW 5.4 0.0 0.6
18:27 8.7 7.3 91 1022.0 4.5 S 5.4 0.0 0.6
18:28 8.7 7.3 91 1021.8 5.4 SW 5.4 0.0 0.6
18:29 8.7 7.3 91 1022.0 3.8 S 5.4 0.0 0.6
18:30 8.7 7.3 91 1021.8 3.8 SW 5.4 0.0 0.6
18:31 8.7 7.3 91 1021.9 3.1 S 5.4 0.0 0.6
18:32 8.7 7.3 91 1022.0 5.4 S 5.4 0.0 0.6
18:33 8.7 7.3 91 1021.8 5.4 S 5.4 0.0 0.6
18:34 8.7 7.3 91 1021.8 6.0 SW 6.0 0.0 0.6
18:35 8.8 7.4 91 1021.9 3.8 SW 6.0 0.0 0.6
18:36 8.8 7.4 91 1021.9 4.5 WSW 6.0 0.0 0.6
18:37 8.8 7.4 91 1021.8 3.8 NW 6.0 0.0 0.6
18:38 8.8 7.4 91 1022.0 4.5 SW 6.0 0.0 0.6
18:39 8.8 7.4 91 1022.0 4.5 SW 6.0 0.0 0.6
18:40 8.8 7.4 91 1022.1 4.5 SW 6.0 0.0 0.6
18:41 8.8 7.6 92 1022.1 3.8 SW 6.0 0.0 0.6
18:42 8.9 7.7 92 1022.1 4.5 S 6.0 0.0 0.6
18:43 8.9 7.7 92 1022.1 3.8 S 6.0 0.0 0.6
18:44 8.9 7.7 92 1022.1 3.8 S 6.0 0.0 0.6
18:45 8.9 7.7 92 1021.9 5.4 SW 5.4 0.0 0.6
18:46 8.9 7.7 92 1022.1 7.6 S 7.6 0.0 0.6
18:47 8.9 7.7 92 1022.2 5.4 S 7.6 0.0 0.6
18:48 9.0 7.8 92 1022.2 4.5 SW 7.6 0.0 0.6
18:49 9.0 7.8 92 1022.1 4.5 SW 7.6 0.0 0.6
18:50 9.0 7.8 92 1022.1 4.5 SW 7.6 0.0 0.6
18:51 9.0 7.8 92 1022.1 3.8 S 7.6 0.0 0.6
18:53 9.0 7.8 92 1022.2 4.5 S 7.6 0.0 0.6
18:54 9.0 7.8 92 1022.4 3.8 S 7.6 0.0 0.6
18:55 9.1 7.9 92 1022.5 3.1 SW 7.6 0.0 0.6
18:56 9.1 7.9 92 1022.5 4.5 SW 5.4 0.0 0.6
18:57 9.1 7.9 92 1022.6 3.1 SW 5.4 0.0 0.6
18:58 9.1 7.9 92 1022.9 3.1 SW 4.5 0.0 0.6
18:59 9.1 7.9 92 1022.8 3.1 SW 4.5 0.0 0.6
19:00 9.1 7.9 92 1022.7 3.1 SW 4.5 0.0 0.6
19:01 9.1 7.9 92 1022.6 3.1 SW 4.5 0.0 0.6
19:02 9.1 7.9 92 1022.8 3.1 SW 4.5 0.0 0.6
19:03 9.1 7.9 92 1022.5 3.1 SW 4.5 0.0 0.6
19:04 9.1 7.9 92 1022.4 3.1 SW 4.5 0.0 0.6
19:05 9.1 7.9 92 1022.4 3.1 SW 4.5 0.0 0.6
19:06 9.1 7.9 92 1022.3 3.1 SW 4.5 0.0 0.6
19:07 9.1 7.9 92 1022.4 3.1 SW 3.8 0.0 0.6
19:08 9.1 7.9 92 1022.4 3.8 S 3.8 0.0 0.6
19:09 9.1 7.9 92 1022.4 3.8 SW 3.8 0.0 0.6
19:10 9.1 7.9 92 1022.4 4.5 SW 4.5 0.0 0.6
19:11 9.1 7.9 92 1022.4 3.8 SSW 4.5 0.0 0.6
19:12 9.1 7.9 92 1022.3 3.8 S 4.5 0.0 0.6
19:13 9.1 7.9 92 1022.3 4.5 S 4.5 0.0 0.6
19:14 9.1 7.9 92 1022.1 4.5 S 4.5 0.0 0.6
19:15 9.1 7.9 92 1022.4 3.8 SW 4.5 0.0 0.6
19:16 9.1 7.9 92 1022.1 3.8 SW 4.5 0.0 0.6
19:17 9.0 7.9 93 1022.1 3.8 SW 4.5 0.0 0.6
19:18 9.0 7.9 93 1022.3 5.4 SW 5.4 0.0 0.6
19:19 9.0 7.9 93 1022.4 4.5 S 5.4 0.0 0.6
19:20 9.0 7.9 93 1022.4 4.5 S 5.4 0.0 0.6
19:21 9.0 7.9 93 1022.3 5.4 S 5.4 0.0 0.6
19:22 9.0 7.9 93 1022.1 6.0 S 6.0 0.0 0.6
19:23 9.0 7.9 93 1022.4 6.0 S 6.0 0.0 0.6
19:24 9.0 7.9 93 1022.4 6.0 S 6.0 0.0 0.6
19:25 9.0 7.9 93 1022.4 6.9 SW 6.9 0.0 0.6
19:26 9.0 7.9 93 1022.6 6.9 SW 6.9 0.0 0.6
19:27 9.0 7.9 93 1022.2 6.9 S 6.9 0.0 0.6
19:28 9.0 7.9 93 1021.9 6.9 SW 6.9 0.0 0.6
19:29 9.0 7.9 93 1021.8 6.9 SW 6.9 0.0 0.6
19:30 9.0 7.9 93 1021.7 6.9 SSW 6.9 0.0 0.6
19:31 9.0 7.9 93 1021.6 6.9 SW 6.9 0.0 0.6
19:32 9.0 7.9 93 1021.4 6.9 SW 6.9 0.0 0.6
19:33 9.0 7.9 93 1021.5 4.5 SW 6.9 0.0 0.6
19:34 9.0 7.9 93 1021.3 6.9 SW 6.9 0.0 0.6
19:35 9.0 7.9 93 1021.4 6.0 SSE 6.9 0.0 0.6
19:36 9.0 7.9 93 1021.4 6.0 SW 6.9 0.0 0.6
19:37 9.1 8.0 93 1021.4 6.9 SW 6.9 0.0 0.6
19:38 9.1 8.0 93 1021.4 7.6 S 7.6 0.0 0.6
19:39 9.1 8.0 93 1021.3 7.6 WSW 7.6 0.0 0.6
19:40 9.1 8.0 93 1021.4 6.0 S 7.6 0.0 0.6
19:41 9.1 8.0 93 1021.7 6.0 S 7.6 0.0 0.6
19:42 9.2 8.1 93 1021.5 5.4 S 7.6 0.0 0.6
19:43 9.2 8.1 93 1021.5 5.4 S 7.6 0.0 0.6
19:44 9.2 8.1 93 1021.5 5.4 S 7.6 0.0 0.6
19:45 9.2 8.1 93 1021.7 8.3 S 8.3 0.0 0.6
19:46 9.2 8.1 93 1021.6 8.3 S 8.3 0.0 0.6
19:47 9.2 8.1 93 1021.8 4.5 S 8.3 0.0 0.6
19:48 9.2 8.1 93 1022.0 6.0 S 8.3 0.0 0.6
19:49 9.2 8.1 93 1022.0 6.9 S 8.3 0.0 0.6
19:50 9.2 8.1 93 1021.7 5.4 S 8.3 0.0 0.6
19:51 9.2 8.1 93 1022.0 4.5 SW 8.3 0.0 0.6
19:52 9.3 8.2 93 1021.9 6.9 NW 8.3 0.0 0.6
19:53 9.3 8.2 93 1021.9 6.0 SW 8.3 0.0 0.6
19:54 9.3 8.2 93 1021.9 6.9 SSW 8.3 0.0 0.6
19:55 9.3 8.2 93 1021.8 7.6 SW 8.3 0.0 0.6
19:56 9.3 8.2 93 1021.9 6.0 S 7.6 0.0 0.6
19:57 9.3 8.2 93 1021.9 5.4 S 7.6 0.0 0.6
19:58 9.3 8.2 93 1022.0 6.0 SW 7.6 0.0 0.6
19:59 9.3 8.2 93 1021.9 5.4 S 7.6 0.0 0.6
20:00 9.3 8.2 93 1021.8 5.4 SW 7.6 0.0 0.6
20:01 9.3 8.2 93 1022.3 6.0 SW 7.6 0.0 0.6
20:02 9.3 8.2 93 1022.0 5.4 SW 7.6 0.0 0.6
20:03 9.3 8.2 93 1021.9 5.4 SW 7.6 0.0 0.6
20:04 9.3 8.2 93 1021.9 5.4 W 7.6 0.0 0.6
20:05 9.3 8.2 93 1021.7 4.5 SW 7.6 0.0 0.6
20:06 9.3 8.2 93 1021.9 6.0 S 6.0 0.0 0.6
20:07 9.3 8.2 93 1021.7 6.0 SW 6.0 0.0 0.6
20:08 9.3 8.2 93 1021.6 5.4 SW 6.0 0.0 0.6
20:09 9.3 8.2 93 1021.8 6.0 SW 6.0 0.0 0.6
20:10 9.3 8.2 93 1021.7 4.5 S 6.0 0.0 0.6
20:11 9.3 8.2 93 1022.0 3.8 SW 6.0 0.0 0.6
20:12 9.3 8.2 93 1021.7 7.6 S 7.6 0.0 0.6
20:13 9.3 8.2 93 1021.8 7.6 S 7.6 0.0 0.6
20:14 9.3 8.2 93 1021.7 6.9 SW 7.6 0.0 0.6
20:15 9.3 8.2 93 1021.8 6.9 SW 7.6 0.0 0.6
20:16 9.3 8.2 93 1021.8 5.4 SW 7.6 0.0 0.6
20:17 9.3 8.2 93 1021.7 4.5 SW 7.6 0.0 0.6
20:18 9.3 8.2 93 1021.8 5.4 SW 7.6 0.0 0.6
20:19 9.3 8.2 93 1021.6 5.4 S 7.6 0.0 0.6
20:20 9.3 8.2 93 1021.7 5.4 SW 7.6 0.0 0.6
20:21 9.3 8.2 93 1021.7 5.4 SW 7.6 0.0 0.6
20:22 9.3 8.2 93 1021.3 5.4 S 7.6 0.0 0.6
20:23 9.3 8.2 93 1021.6 4.5 SW 7.6 0.0 0.6
20:24 9.3 8.2 93 1021.5 4.5 SW 6.9 0.0 0.6
20:25 9.3 8.2 93 1021.3 5.4 SW 6.9 0.0 0.6
20:26 9.3 8.2 93 1021.4 5.4 SW 5.4 0.0 0.6
20:27 9.3 8.2 93 1021.4 4.5 SW 5.4 0.0 0.6
20:28 9.2 8.1 93 1021.4 4.5 SW 5.4 0.0 0.6
20:29 9.2 8.1 93 1021.2 4.5 SW 5.4 0.0 0.6
20:30 9.2 8.1 93 1021.4 5.4 SW 5.4 0.0 0.6
20:31 9.2 8.1 93 1021.7 6.9 SW 6.9 0.0 0.6
20:32 9.2 8.1 93 1021.5 6.0 S 6.9 0.0 0.6
20:33 9.2 8.1 93 1021.4 5.4 S 6.9 0.0 0.6
20:34 9.2 8.1 93 1021.6 6.9 SW 6.9 0.0 0.6
20:35 9.2 8.1 93 1021.5 6.9 SW 6.9 0.0 0.6
20:36 9.2 8.3 94 1021.6 6.9 SW 6.9 0.0 0.6
20:37 9.2 8.3 94 1021.7 5.4 S 6.9 0.0 0.6
20:38 9.2 8.3 94 1021.6 7.6 S 7.6 0.0 0.6
20:39 9.2 8.3 94 1021.8 4.5 S 7.6 0.0 0.6
20:40 9.3 8.4 94 1021.6 7.6 SW 7.6 0.0 0.6
20:41 9.3 8.4 94 1021.7 6.9 SW 7.6 0.0 0.6
20:42 9.3 8.4 94 1021.7 6.0 SW 7.6 0.0 0.6
20:43 9.3 8.4 94 1021.4 6.0 SW 7.6 0.0 0.6
20:44 9.3 8.4 94 1021.6 6.9 SW 7.6 0.0 0.6
20:45 9.3 8.4 94 1021.7 7.6 WNW 7.6 0.0 0.6
20:46 9.3 8.4 94 1021.7 6.0 SW 7.6 0.0 0.6
20:47 9.3 8.4 94 1021.9 7.6 SW 7.6 0.0 0.6
20:48 9.3 8.4 94 1021.8 5.4 NW 7.6 0.0 0.6
20:49 9.4 8.5 94 1022.2 5.4 SW 7.6 0.0 0.6
20:50 9.4 8.5 94 1022.0 5.4 S 7.6 0.0 0.6
20:51 9.4 8.5 94 1021.9 5.4 S 7.6 0.0 0.6
20:52 9.4 8.5 94 1021.9 5.4 S 7.6 0.0 0.6
20:53 9.4 8.5 94 1021.8 5.4 SW 7.6 0.0 0.6
20:54 9.4 8.5 94 1021.8 5.4 SW 7.6 0.0 0.6
20:55 9.4 8.5 94 1021.9 6.9 S 7.6 0.0 0.6
20:56 9.4 8.5 94 1021.8 6.9 SW 7.6 0.8 0.6
20:57 9.4 8.5 94 1021.8 6.0 SSW 7.6 0.8 0.6
20:58 9.4 8.5 94 1021.8 5.4 S 6.9 0.8 0.6
20:59 9.4 8.5 94 1021.7 6.9 S 6.9 0.8 0.6
21:00 9.4 8.5 94 1022.0 5.4 SW 6.9 0.8 0.6
21:01 9.4 8.5 94 1021.8 5.4 SW 6.9 0.0 0.6
21:02 9.4 8.5 94 1021.8 5.4 SW 6.9 0.0 0.6
21:03 9.4 8.5 94 1021.7 5.4 SW 6.9 0.0 0.6
21:04 9.4 8.5 94 1021.8 5.4 SW 6.9 0.0 0.6
21:05 9.4 8.5 94 1022.1 5.4 SW 6.9 0.0 0.6
21:06 9.5 8.6 94 1021.9 6.0 SW 6.9 0.0 0.8
21:07 9.5 8.6 94 1021.9 6.0 WSW 6.9 2.3 0.8
21:08 9.5 8.6 94 1021.9 6.9 WSW 6.9 2.3 0.8
21:09 9.5 8.6 94 1022.0 6.9 SW 6.9 2.3 0.8
21:10 9.5 8.6 94 1021.9 6.0 SW 6.9 2.3 0.8
21:11 9.5 8.6 94 1022.0 5.4 SW 6.9 2.3 0.8
21:12 9.5 8.6 94 1022.1 6.0 SW 6.9 0.0 0.8
21:13 9.5 8.6 94 1022.3 5.4 SW 6.9 0.0 0.8
21:14 9.5 8.6 94 1022.0 7.6 SW 7.6 0.0 0.8
21:15 9.5 8.6 94 1022.0 7.6 SW 7.6 0.0 0.8
21:16 9.5 8.6 94 1022.2 7.6 SW 8.3 0.0 0.8
21:17 9.5 8.6 94 1022.2 7.6 SW 8.3 0.0 0.8
21:18 9.5 8.6 94 1022.2 7.6 SW 8.3 0.0 0.8
21:19 9.5 8.6 94 1022.4 7.6 SW 8.3 0.0 0.8
21:20 9.6 8.7 94 1022.2 8.3 SW 8.3 0.0 0.9
21:21 9.6 8.7 94 1022.1 8.3 SW 8.3 0.8 0.9
21:22 9.6 8.7 94 1022.0 7.6 SW 8.3 0.8 0.9
21:23 9.6 8.7 94 1022.3 7.6 SW 8.3 0.8 0.9
21:24 9.6 8.7 94 1022.2 7.6 SW 8.3 0.8 0.9
21:25 9.6 8.7 94 1022.2 6.9 S 8.3 0.8 0.9
21:26 9.6 8.7 94 1022.2 6.9 SW 8.3 0.0 0.9
21:27 9.6 8.7 94 1022.3 5.4 SW 8.3 0.0 0.9
21:28 9.6 8.7 94 1022.3 6.9 S 8.3 0.0 0.9
21:29 9.6 8.7 94 1022.3 9.8 NW 9.8 0.0 0.9
21:30 9.6 8.7 94 1022.2 7.6 SW 9.8 0.0 0.9
21:31 9.6 8.7 94 1022.2 6.9 SW 9.8 0.0 0.9
21:32 9.6 8.7 94 1022.0 7.6 SW 9.8 0.0 0.9
21:33 9.6 8.7 94 1022.3 5.4 S 9.8 0.0 0.9
21:34 9.6 8.7 94 1022.1 5.4 SW 9.8 0.0 0.9
21:35 9.6 8.7 94 1022.4 9.8 SW 9.8 0.0 0.9
21:36 9.6 8.7 94 1022.2 6.9 S 9.8 0.0 0.9
21:37 9.6 8.7 94 1022.3 5.4 SW 9.8 0.0 0.9
21:38 9.6 8.7 94 1022.3 6.0 NW 9.8 0.0 0.9
21:39 9.6 8.7 94 1022.2 6.0 S 9.8 0.0 0.9
21:40 9.6 8.7 94 1022.3 6.0 SW 9.8 0.0 0.9
21:41 9.6 8.7 94 1022.4 6.0 SW 9.8 0.0 0.9
21:42 9.6 8.7 94 1022.3 8.3 SW 9.8 0.8 0.9
21:43 9.6 8.7 94 1022.4 6.0 S 9.8 0.8 0.9
21:44 9.6 8.7 94 1022.3 6.0 S 9.8 0.8 0.9
21:45 9.7 8.9 95 1022.4 7.6 SW 9.8 0.8 0.9
21:46 9.7 8.9 95 1022.4 10.7 WSW 10.7 0.8 0.9
21:47 9.7 8.9 95 1022.4 9.8 WSW 10.7 0.0 0.9
21:48 9.7 8.9 95 1022.5 12.1 SSW 12.1 0.0 0.9
21:49 9.7 8.9 95 1022.4 9.8 S 12.1 0.0 0.9
21:50 9.7 8.9 95 1022.4 13.0 SW 13.0 0.0 0.9
21:51 9.7 8.9 95 1022.2 12.1 SW 13.0 0.0 0.9
21:52 9.7 8.9 95 1022.1 10.7 SW 13.0 0.0 0.9
21:53 9.7 8.9 95 1022.3 10.7 SW 13.0 0.0 0.9
21:54 9.7 8.9 95 1022.0 9.8 SE 13.0 0.8 1.0
21:55 9.7 8.9 95 1022.0 9.8 SE 13.0 0.8 1.0
21:56 9.7 8.9 95 1022.2 12.1 SW 13.0 0.8 1.0
21:57 9.7 8.9 95 1022.2 11.4 SW 13.0 1.5 1.1
21:58 9.7 8.9 95 1022.1 12.1 S 13.0 1.5 1.1
21:59 9.7 8.9 95 1022.3 13.6 S 13.6 0.8 1.1
22:00 9.7 8.9 95 1022.1 13.6 S 13.6 0.8 1.1
22:01 9.6 8.8 95 1022.2 9.2 S 13.6 0.8 1.1
22:02 9.6 8.8 95 1022.1 10.7 SW 13.6 0.0 1.1
22:03 9.6 8.8 95 1022.0 10.7 SW 13.6 0.0 1.1
22:04 9.6 8.8 95 1022.1 10.7 SW 13.6 0.0 1.1
22:05 9.5 8.7 95 1022.2 8.3 S 13.6 0.0 1.1
22:06 9.5 8.7 95 1022.2 10.7 SW 13.6 0.0 1.1
22:07 9.5 8.7 95 1022.2 9.2 SW 13.6 0.8 1.1
22:08 9.5 8.7 95 1022.1 9.2 SW 13.6 0.8 1.1
22:09 9.5 8.6 94 1022.2 9.8 SW 13.6 0.8 1.1
22:10 9.5 8.6 94 1022.2 10.7 SW 13.6 0.8 1.1
22:11 9.5 8.6 94 1022.3 9.2 SW 10.7 0.8 1.1
22:12 9.5 8.6 94 1022.5 8.3 S 10.7 0.0 1.1
22:13 9.5 8.6 94 1022.4 8.3 S 10.7 0.0 1.1
22:14 9.5 8.6 94 1022.2 9.2 SE 10.7 0.0 1.1
22:15 9.5 8.6 94 1022.3 8.3 S 10.7 0.8 1.2
22:16 9.5 8.6 94 1022.1 10.7 SW 10.7 0.8 1.2
22:17 9.5 8.6 94 1022.1 7.6 S 10.7 0.8 1.2
22:18 9.5 8.6 94 1021.9 9.8 SW 10.7 0.8 1.2
22:19 9.5 8.6 94 1022.0 7.6 SW 10.7 0.8 1.2
22:20 9.4 8.5 94 1021.9 9.2 SW 10.7 0.0 1.2
22:21 9.4 8.5 94 1022.1 9.2 S 10.7 0.0 1.2
22:22 9.4 8.5 94 1022.0 6.9 SW 10.7 0.0 1.2
22:23 9.4 8.5 94 1022.1 10.7 SW 10.7 0.0 1.2
22:24 9.4 8.5 94 1022.2 10.7 SW 10.7 0.0 1.2
22:25 9.4 8.5 94 1022.2 7.6 SW 10.7 0.0 1.2
22:26 9.3 8.4 94 1022.3 7.6 SW 10.7 0.0 1.2
22:27 9.3 8.4 94 1022.1 8.3 WSW 10.7 0.0 1.2
22:28 9.3 8.4 94 1022.4 9.2 S 10.7 0.0 1.2
22:29 9.3 8.4 94 1022.1 9.2 SW 10.7 0.8 1.3
22:30 9.3 8.4 94 1022.3 7.6 SW 10.7 0.8 1.3
22:31 9.3 8.4 94 1022.2 7.6 S 10.7 0.8 1.3
22:32 9.3 8.4 94 1022.3 7.6 SW 10.7 0.8 1.3
22:33 9.3 8.4 94 1022.0 7.6 SW 10.7 0.8 1.3
22:34 9.3 8.4 94 1022.0 6.9 SW 10.7 0.0 1.3
22:35 9.3 8.4 94 1022.0 7.6 S 9.2 0.0 1.3
22:36 9.3 8.4 94 1022.0 6.0 S 9.2 0.0 1.3
22:37 9.3 8.4 94 1022.2 6.0 SW 9.2 0.0 1.3
22:38 9.3 8.4 94 1022.2 6.0 S 9.2 0.0 1.3
22:39 9.3 8.4 94 1022.0 6.9 S 7.6 0.0 1.3
22:40 9.3 8.4 94 1022.0 6.9 SSW 7.6 0.0 1.3
22:41 9.3 8.4 94 1022.1 5.4 SW 7.6 0.0 1.3
22:42 9.4 8.5 94 1022.1 6.9 SW 7.6 0.0 1.3
22:43 9.4 8.5 94 1022.2 6.9 SW 7.6 0.0 1.3
22:44 9.4 8.5 94 1022.2 6.9 SW 7.6 0.0 1.3
22:45 9.4 8.5 94 1022.0 6.9 S 7.6 0.0 1.3
22:46 9.4 8.5 94 1022.1 7.6 S 7.6 0.0 1.3
22:47 9.5 8.6 94 1022.0 7.6 S 7.6 0.0 1.3
22:48 9.5 8.6 94 1021.8 7.6 S 7.6 0.0 1.3
22:49 9.5 8.6 94 1021.9 7.6 S 7.6 0.0 1.3
22:50 9.5 8.6 94 1021.9 9.8 S 9.8 0.0 1.3
22:51 9.5 8.6 94 1021.9 14.5 SW 14.5 0.0 1.3
22:52 9.6 8.7 94 1022.0 12.1 S 14.5 0.0 1.3
22:53 9.6 8.7 94 1022.1 9.8 SW 14.5 0.0 1.3
22:54 9.6 8.7 94 1021.7 11.4 SW 14.5 0.0 1.3
22:55 9.7 8.8 94 1022.1 9.8 S 14.5 0.0 1.3
22:56 9.7 8.8 94 1022.0 11.4 SW 14.5 0.0 1.3
22:58 9.8 8.9 94 1022.0 10.7 S 14.5 0.0 1.3
22:59 9.8 8.9 94 1022.1 9.8 S 14.5 0.0 1.3
23:00 9.8 8.9 94 1022.0 9.8 S 14.5 0.0 1.3
23:01 9.8 8.9 94 1022.2 9.8 S 12.1 0.0 1.3
23:02 9.8 8.9 94 1022.1 9.8 S 12.1 0.0 1.3
23:03 9.8 8.9 94 1022.1 9.8 S 11.4 0.0 1.3
23:04 9.8 8.9 94 1022.1 9.8 S 11.4 0.0 1.3
23:05 9.8 8.9 94 1022.0 9.8 S 11.4 0.0 1.3
23:06 9.8 8.9 94 1022.1 9.8 S 11.4 0.0 1.3
23:07 9.8 8.9 94 1022.1 9.8 S 10.7 0.0 1.3
23:08 9.9 9.1 95 1021.9 12.1 S 12.1 0.0 1.3
23:09 9.9 9.1 95 1021.9 12.1 SSW 12.1 0.0 1.3
23:10 9.9 9.1 95 1021.9 10.7 S 12.1 0.0 1.3
23:11 9.9 9.1 95 1021.9 10.7 S 12.1 0.0 1.3
23:12 9.9 9.1 95 1022.0 12.1 SW 13.6 0.0 1.3
23:13 9.9 9.1 95 1022.2 10.7 S 13.6 0.0 1.3
23:14 9.9 9.1 95 1022.1 12.1 NW 13.6 0.0 1.3
23:16 9.9 9.1 95 1021.9 13.0 SW 13.6 0.0 1.3
23:17 9.9 9.1 95 1022.1 13.0 SW 13.6 0.0 1.3
23:18 9.9 9.1 95 1022.2 9.8 SE 13.6 0.0 1.3
23:19 9.9 9.1 95 1022.2 14.5 SW 14.5 0.0 1.3
23:20 10.0 9.2 95 1022.1 13.6 SSW 14.5 0.0 1.3
23:21 10.0 9.2 95 1022.1 9.8 SW 14.5 0.0 1.3
23:22 10.0 9.2 95 1021.9 9.2 SE 14.5 0.0 1.3
23:23 10.0 9.2 95 1021.9 9.8 SW 14.5 0.0 1.3
23:24 10.0 9.2 95 1021.9 9.2 S 14.5 0.0 1.3
23:25 10.0 9.2 95 1021.6 11.4 SSW 14.5 0.0 1.3
23:26 10.0 9.2 95 1021.9 11.4 SSW 14.5 0.0 1.3
23:27 10.0 9.2 95 1021.9 9.2 SW 14.5 0.0 1.3
23:28 10.0 9.2 95 1021.8 9.8 S 14.5 0.0 1.3
23:29 10.0 9.2 95 1021.8 9.8 S 13.6 0.0 1.3
23:30 10.0 9.2 95 1021.9 10.7 NE 13.6 0.0 1.3
23:31 10.0 9.2 95 1021.9 10.7 NE 11.4 0.0 1.3
23:32 10.0 9.2 95 1022.0 11.4 S 11.4 0.0 1.3
23:33 10.0 9.2 95 1021.8 11.4 SSW 11.4 0.8 1.3
23:34 10.0 9.2 95 1022.0 13.0 S 13.0 0.8 1.3
23:35 10.0 9.2 95 1022.1 13.0 S 13.0 0.8 1.3
23:36 10.0 9.2 95 1022.4 13.0 S 13.6 0.8 1.3
23:37 10.0 9.2 95 1021.9 12.1 SW 13.6 0.8 1.3
23:38 10.0 9.2 95 1022.1 13.6 S 16.8 0.0 1.3
23:39 10.1 9.3 95 1022.4 15.9 SW 16.8 0.0 1.3
23:40 10.1 9.3 95 1022.1 13.6 S 16.8 0.0 1.3
23:41 10.1 9.3 95 1022.1 13.6 SW 16.8 0.0 1.3
23:42 10.1 9.3 95 1022.1 12.1 SW 16.8 0.0 1.3
23:43 10.1 9.3 95 1022.1 12.1 S 16.8 0.0 1.3
23:44 10.1 9.3 95 1022.0 13.6 SW 16.8 0.0 1.3
23:45 10.1 9.3 95 1022.3 12.1 SW 16.8 0.0 1.3
23:46 10.1 9.3 95 1022.2 13.0 SSW 16.8 0.0 1.3
23:47 10.1 9.3 95 1022.2 13.0 SSW 16.8 0.0 1.3
23:48 10.1 9.3 95 1022.2 15.9 SW 16.8 0.0 1.3
23:49 10.1 9.3 95 1022.1 15.9 S 15.9 0.0 1.3
23:50 10.1 9.3 95 1022.0 15.9 S 15.9 0.0 1.3
23:51 10.1 9.3 95 1022.2 15.2 S 15.9 0.0 1.3
23:52 10.1 9.3 95 1022.3 13.6 S 15.9 0.0 1.3
23:53 10.1 9.3 95 1022.2 11.4 NW 15.9 0.0 1.3
23:54 10.1 9.3 95 1022.0 12.1 SW 15.9 0.0 1.3
23:55 10.1 9.3 95 1022.4 11.4 SE 15.9 0.0 1.3
23:56 10.2 9.4 95 1022.2 13.0 S 15.9 0.0 1.3
23:57 10.2 9.4 95 1022.0 14.5 S 15.9 0.0 1.3
23:58 10.2 9.4 95 1022.1 13.0 SW 15.9 0.0 1.3
23:59 10.2 9.6 96 1022.0 12.1 S 15.9 0.0 1.3

 

 

UK - WEATHER STATION TOPSITES - UK World Weather Websites

Copyright © Carnkie Weather 2009 - 2022.